Observation data for Aiken on 05/27/2019      Previous  Date  Next       Current Mesonet Observations  Soil Data  Daily Summary Page  Observations in Plain Language
KAI1 270500Z 16010KT 19/18 A299 RMK A01 T01940179  RH  091%=      5-min Rain = 0
KAI1 270501Z 16010KT 19/18 A299 RMK A01 T01940179  RH  091%=      5-min Rain = 0
KAI1 270502Z 16010KT 19/18 A299 RMK A01 T01940179  RH  091%=      5-min Rain = 0
KAI1 270503Z 16011KT 19/18 A299 RMK A01 T01940180  RH  091%=      5-min Rain = 0
KAI1 270504Z 16010KT 19/18 A299 RMK A01 T01940179  RH  091%=      5-min Rain = 0
KAI1 270505Z 17010KT 19/18 A299 RMK A01 T01940179  RH  091%=      5-min Rain = 0
KAI1 270506Z 17011KT 19/18 A299 RMK A01 T01940179  RH  091%=      5-min Rain = 0
KAI1 270507Z 17011KT 19/18 A299 RMK A01 T01940179  RH  091%=      5-min Rain = 0
KAI1 270508Z 16011KT 19/18 A299 RMK A01 T01940179  RH  091%=      5-min Rain = 0
KAI1 270509Z 16011KT 19/18 A299 RMK A01 T01940179  RH  091%=      5-min Rain = 0
KAI1 270510Z 16011KT 19/18 A299 RMK A01 T01940179  RH  091%=      5-min Rain = 0
KAI1 270511Z 17010KT 19/18 A299 RMK A01 T01940179  RH  091%=      5-min Rain = 0
KAI1 270512Z 17010KT 19/18 A299 RMK A01 T01930179  RH  091%=      5-min Rain = 0
KAI1 270513Z 17011KT 19/18 A299 RMK A01 T01930179  RH  092%=      5-min Rain = 0
KAI1 270514Z 17011KT 19/18 A299 RMK A01 T01920179  RH  092%=      5-min Rain = 0
KAI1 270515Z 17011KT 19/18 A299 RMK A01 T01920179  RH  092%=      5-min Rain = 0
KAI1 270516Z 17011KT 19/18 A299 RMK A01 T01920179  RH  092%=      5-min Rain = 0
KAI1 270517Z 17011KT 19/18 A299 RMK A01 T01920179  RH  092%=      5-min Rain = 0
KAI1 270518Z 17012KT 19/18 A299 RMK A01 T01920179  RH  092%=      5-min Rain = 0
KAI1 270519Z 17011KT 19/18 A299 RMK A01 T01920179  RH  092%=      5-min Rain = 0
KAI1 270520Z 17011KT 19/18 A299 RMK A01 T01920179  RH  092%=      5-min Rain = 0
KAI1 270521Z 17011KT 19/18 A299 RMK A01 T01910178  RH  092%=      5-min Rain = 0
KAI1 270522Z 17011KT 19/18 A299 RMK A01 T01920178  RH  092%=      5-min Rain = 0
KAI1 270523Z 16011KT 19/18 A299 RMK A01 T01920178  RH  092%=      5-min Rain = 0
KAI1 270524Z 17011KT 19/18 A2989 RMK A01 T01910178  RH  092%=      5-min Rain = 0
KAI1 270525Z 17011KT 19/18 A299 RMK A01 T01910179  RH  092%=      5-min Rain = 0
KAI1 270526Z 17010KT 19/18 A299 RMK A01 T01910178  RH  092%=      5-min Rain = 0
KAI1 270527Z 17011KT 19/18 A299 RMK A01 T01910178  RH  092%=      5-min Rain = 0
KAI1 270528Z 17010KT 19/18 A299 RMK A01 T01910178  RH  092%=      5-min Rain = 0
KAI1 270529Z 16011KT 19/18 A299 RMK A01 T01910178  RH  092%=      5-min Rain = 0
KAI1 270530Z 16012KT 19/18 A2989 RMK A01 T01910178  RH  092%=      5-min Rain = 0
KAI1 270531Z 16012KT 19/18 A2989 RMK A01 T01900178  RH  092%=      5-min Rain = 0
KAI1 270532Z 16012KT 19/18 A2989 RMK A01 T01900178  RH  092%=      5-min Rain = 0
KAI1 270533Z 17012KT 19/18 A2989 RMK A01 T01900178  RH  093%=      5-min Rain = 0
KAI1 270534Z 17011KT 19/18 A2989 RMK A01 T01900178  RH  093%=      5-min Rain = 0
KAI1 270535Z 17010KT 19/18 A2989 RMK A01 T01900178  RH  093%=      5-min Rain = 0
KAI1 270536Z 17010KT 19/18 A2989 RMK A01 T01900178  RH  093%=      5-min Rain = 0
KAI1 270537Z 17011KT 19/18 A2989 RMK A01 T01890178  RH  093%=      5-min Rain = 0
KAI1 270538Z 17011KT 19/18 A2989 RMK A01 T01890177  RH  093%=      5-min Rain = 0
KAI1 270539Z 17011KT 19/18 A2989 RMK A01 T01890177  RH  093%=      5-min Rain = 0
KAI1 270540Z 17012KT 19/18 A2989 RMK A01 T01890177  RH  093%=      5-min Rain = 0
KAI1 270541Z 17012KT 19/18 A2989 RMK A01 T01890178  RH  093%=      5-min Rain = 0
KAI1 270542Z 16012KT 19/18 A2989 RMK A01 T01890177  RH  093%=      5-min Rain = 0
KAI1 270543Z 16012KT 19/18 A2989 RMK A01 T01890178  RH  093%=      5-min Rain = 0
KAI1 270544Z 16011KT 19/18 A2989 RMK A01 T01890178  RH  093%=      5-min Rain = 0
KAI1 270545Z 16010KT 19/18 A2989 RMK A01 T01890178  RH  093%=      5-min Rain = 0
KAI1 270546Z 17009KT 19/18 A2989 RMK A01 T01890177  RH  093%=      5-min Rain = 0
KAI1 270547Z 18008KT 19/18 A299 RMK A01 T01890178  RH  093%=      5-min Rain = 0
KAI1 270548Z 19007KT 19/18 A299 RMK A01 T01890177  RH  093%=      5-min Rain = 0
KAI1 270549Z 21006KT 19/18 A2991 RMK A01 T01890177  RH  093%=      5-min Rain = 0
KAI1 270550Z 22006KT 19/18 A2991 RMK A01 T01890177  RH  093%=      5-min Rain = 0
KAI1 270551Z 22006KT 19/18 A2991 RMK A01 T01880177  RH  093%=      5-min Rain = 0
KAI1 270552Z 21006KT 19/18 A2991 RMK A01 T01880177  RH  093%=      5-min Rain = 0
KAI1 270553Z 20005KT 19/18 A2991 RMK A01 T01880177  RH  093%=      5-min Rain = 0
KAI1 270554Z 20006KT 19/18 A2991 RMK A01 T01870176  RH  093%=      5-min Rain = 0
KAI1 270555Z 19007KT 19/18 A2991 RMK A01 T01870176  RH  093%=      5-min Rain = 0
KAI1 270556Z 20007KT 19/18 A2991 RMK A01 T01870176  RH  094%=      5-min Rain = 0
KAI1 270557Z 22007KT 19/18 A2991 RMK A01 T01860176  RH  094%=      5-min Rain = 0
KAI1 270558Z 24007KT 19/18 A2992 RMK A01 T01860175  RH  094%=      5-min Rain = 0
KAI1 270559Z 24007KT 19/18 A2992 RMK A01 T01850175  RH  094%=      5-min Rain = 0
KAI1 270600Z 23006KT 18/17 A2992 RMK A01 T01840174  RH  094%=      5-min Rain = 0
KAI1 270601Z 22006KT 18/17 A2992 RMK A01 T01840174  RH  094%=      5-min Rain = 0
KAI1 270602Z 21006KT 18/17 A2992 RMK A01 T01830174  RH  094%=      5-min Rain = 0
KAI1 270603Z 20006KT 18/17 A2991 RMK A01 T01830174  RH  095%=      5-min Rain = 0
KAI1 270604Z 19008KT 18/17 A2991 RMK A01 T01830174  RH  095%=      5-min Rain = 0
KAI1 270605Z 19008KT 18/18 A2991 RMK A01 T01830175  RH  095%=      5-min Rain = 0
KAI1 270606Z 19008KT 18/18 A2991 RMK A01 T01840176  RH  095%=      5-min Rain = 0
KAI1 270607Z 19008KT 19/18 A2991 RMK A01 T01850176  RH  094%=      5-min Rain = 0
KAI1 270608Z 20008KT 19/18 A2991 RMK A01 T01860176  RH  094%=      5-min Rain = 0
KAI1 270609Z 20008KT 19/18 A2991 RMK A01 T01860176  RH  094%=      5-min Rain = 0
KAI1 270610Z 21008KT 19/18 A2992 RMK A01 T01860176  RH  094%=      5-min Rain = 0
KAI1 270611Z 21008KT 19/18 A2992 RMK A01 T01860176  RH  094%=      5-min Rain = 0
KAI1 270612Z 22008KT 19/18 A2992 RMK A01 T01850175  RH  094%=      5-min Rain = 0
KAI1 270613Z 21008KT 19/18 A2992 RMK A01 T01850175  RH  094%=      5-min Rain = 0
KAI1 270614Z 20007KT 18/18 A2991 RMK A01 T01840175  RH  094%=      5-min Rain = 0
KAI1 270615Z 20007KT 18/18 A2991 RMK A01 T01840175  RH  095%=      5-min Rain = 0
KAI1 270616Z 19008KT 18/18 A2991 RMK A01 T01840175  RH  095%=      5-min Rain = 0
KAI1 270617Z 19008KT 18/18 A2991 RMK A01 T01840176  RH  095%=      5-min Rain = 0
KAI1 270618Z 19008KT 18/18 A2991 RMK A01 T01840176  RH  095%=      5-min Rain = 0
KAI1 270619Z 19008KT 19/18 A2991 RMK A01 T01850176  RH  095%=      5-min Rain = 0
KAI1 270620Z 18008KT 19/18 A2991 RMK A01 T01850176  RH  094%=      5-min Rain = 0
KAI1 270621Z 18009KT 19/18 A2991 RMK A01 T01850176  RH  094%=      5-min Rain = 0
KAI1 270622Z 18009KT 19/18 A2991 RMK A01 T01860176  RH  094%=      5-min Rain = 0
KAI1 270623Z 18010KT 19/18 A2991 RMK A01 T01860176  RH  094%=      5-min Rain = 0
KAI1 270624Z 18010KT 19/18 A2991 RMK A01 T01860176  RH  094%=      5-min Rain = 0
KAI1 270625Z 18010KT 19/18 A2991 RMK A01 T01860176  RH  094%=      5-min Rain = 0
KAI1 270626Z 19009KT 19/18 A2991 RMK A01 T01860176  RH  094%=      5-min Rain = 0
KAI1 270627Z 19009KT 19/18 A2991 RMK A01 T01870177  RH  094%=      5-min Rain = 0
KAI1 270628Z 19009KT 19/18 A2991 RMK A01 T01870176  RH  094%=      5-min Rain = 0
KAI1 270629Z 19009KT 19/18 A2991 RMK A01 T01870176  RH  093%=      5-min Rain = 0
KAI1 270630Z 18009KT 19/18 A2991 RMK A01 T01870176  RH  093%=      5-min Rain = 0
KAI1 270631Z 19009KT 19/18 A2991 RMK A01 T01870176  RH  094%=      5-min Rain = 0
KAI1 270632Z 19009KT 19/18 A2991 RMK A01 T01870176  RH  094%=      5-min Rain = 0
KAI1 270633Z 18009KT 19/18 A2991 RMK A01 T01860176  RH  094%=      5-min Rain = 0
KAI1 270634Z 18009KT 19/18 A2991 RMK A01 T01870176  RH  094%=      5-min Rain = 0
KAI1 270635Z 18009KT 19/18 A2991 RMK A01 T01870176  RH  094%=      5-min Rain = 0
KAI1 270636Z 18009KT 19/18 A2991 RMK A01 T01870176  RH  093%=      5-min Rain = 0
KAI1 270637Z 18010KT 19/18 A2991 RMK A01 T01880177  RH  093%=      5-min Rain = 0
KAI1 270638Z 19010KT 19/18 A2991 RMK A01 T01880177  RH  093%=      5-min Rain = 0
KAI1 270639Z 18010KT 19/18 A2991 RMK A01 T01880177  RH  093%=      5-min Rain = 0
KAI1 270640Z 18010KT 19/18 A2991 RMK A01 T01880176  RH  093%=      5-min Rain = 0
KAI1 270641Z 18009KT 19/18 A2991 RMK A01 T01880176  RH  093%=      5-min Rain = 0
KAI1 270642Z 18009KT 19/18 A2991 RMK A01 T01880176  RH  093%=      5-min Rain = 0
KAI1 270643Z 18009KT 19/18 A2991 RMK A01 T01880176  RH  093%=      5-min Rain = 0
KAI1 270644Z 18008KT 19/18 A2991 RMK A01 T01870176  RH  093%=      5-min Rain = 0
KAI1 270645Z 18009KT 19/18 A2991 RMK A01 T01870176  RH  093%=      5-min Rain = 0
KAI1 270646Z 18009KT 19/18 A2991 RMK A01 T01870176  RH  094%=      5-min Rain = 0
KAI1 270647Z 18008KT 19/18 A2991 RMK A01 T01870176  RH  094%=      5-min Rain = 0
KAI1 270648Z 18008KT 19/18 A2991 RMK A01 T01870176  RH  094%=      5-min Rain = 0
KAI1 270649Z 18008KT 19/18 A2991 RMK A01 T01870176  RH  094%=      5-min Rain = 0
KAI1 270650Z 18007KT 19/18 A2991 RMK A01 T01860176  RH  094%=      5-min Rain = 0
KAI1 270651Z 18008KT 19/18 A2991 RMK A01 T01850175  RH  094%=      5-min Rain = 0
KAI1 270652Z 17007KT 19/18 A2991 RMK A01 T01850175  RH  094%=      5-min Rain = 0
KAI1 270653Z 17007KT 18/18 A2991 RMK A01 T01840175  RH  094%=      5-min Rain = 0
KAI1 270654Z 17007KT 18/18 A2991 RMK A01 T01840175  RH  094%=      5-min Rain = 0
KAI1 270655Z 17007KT 18/18 A2991 RMK A01 T01840175  RH  094%=      5-min Rain = 0
KAI1 270656Z 17007KT 18/18 A2991 RMK A01 T01840175  RH  094%=      5-min Rain = 0
KAI1 270657Z 17007KT 18/18 A2991 RMK A01 T01840175  RH  094%=      5-min Rain = 0
KAI1 270658Z 17007KT 18/17 A2991 RMK A01 T01830174  RH  094%=      5-min Rain = 0
KAI1 270659Z 17007KT 18/17 A2992 RMK A01 T01830174  RH  094%=      5-min Rain = 0
KAI1 270700Z 17007KT 18/17 A2992 RMK A01 T01830174  RH  095%=      5-min Rain = 0
KAI1 270701Z 17006KT 18/17 A2991 RMK A01 T01820174  RH  095%=      5-min Rain = 0
KAI1 270702Z 17007KT 18/17 A2991 RMK A01 T01820174  RH  095%=      5-min Rain = 0
KAI1 270703Z 17007KT 18/17 A2991 RMK A01 T01820174  RH  095%=      5-min Rain = 0
KAI1 270704Z 17007KT 18/17 A2991 RMK A01 T01820174  RH  095%=      5-min Rain = 0
KAI1 270705Z 17007KT 18/17 A2991 RMK A01 T01820174  RH  095%=      5-min Rain = 0
KAI1 270706Z 17007KT 18/17 A2991 RMK A01 T01810173  RH  095%=      5-min Rain = 0
KAI1 270707Z 17008KT 18/17 A2991 RMK A01 T01820174  RH  095%=      5-min Rain = 0
KAI1 270708Z 17007KT 18/17 A2991 RMK A01 T01820174  RH  095%=      5-min Rain = 0
KAI1 270709Z 17007KT 18/17 A2991 RMK A01 T01820174  RH  095%=      5-min Rain = 0
KAI1 270710Z 17007KT 18/17 A2991 RMK A01 T01810173  RH  095%=      5-min Rain = 0
KAI1 270711Z 17007KT 18/17 A2991 RMK A01 T01810173  RH  095%=      5-min Rain = 0
KAI1 270712Z 17008KT 18/17 A2991 RMK A01 T01810173  RH  095%=      5-min Rain = 0
KAI1 270713Z 17007KT 18/17 A2991 RMK A01 T01810173  RH  095%=      5-min Rain = 0
KAI1 270714Z 17008KT 18/17 A2991 RMK A01 T01810173  RH  095%=      5-min Rain = 0
KAI1 270715Z 17008KT 18/17 A2991 RMK A01 T01810173  RH  095%=      5-min Rain = 0
KAI1 270716Z 17008KT 18/17 A299 RMK A01 T01800173  RH  095%=      5-min Rain = 0
KAI1 270717Z 16008KT 18/17 A299 RMK A01 T01800172  RH  095%=      5-min Rain = 0
KAI1 270718Z 16008KT 18/17 A299 RMK A01 T01800173  RH  095%=      5-min Rain = 0
KAI1 270719Z 17009KT 18/17 A299 RMK A01 T01800173  RH  095%=      5-min Rain = 0
KAI1 270720Z 16009KT 18/17 A299 RMK A01 T01800173  RH  095%=      5-min Rain = 0
KAI1 270721Z 17009KT 18/17 A299 RMK A01 T01800173  RH  095%=      5-min Rain = 0
KAI1 270722Z 17009KT 18/17 A299 RMK A01 T01800173  RH  095%=      5-min Rain = 0
KAI1 270723Z 17009KT 18/17 A299 RMK A01 T01800173  RH  095%=      5-min Rain = 0
KAI1 270724Z 17010KT 18/17 A299 RMK A01 T01800173  RH  095%=      5-min Rain = 0
KAI1 270725Z 17010KT 18/17 A299 RMK A01 T01800173  RH  095%=      5-min Rain = 0
KAI1 270726Z 17010KT 18/17 A299 RMK A01 T01810174  RH  095%=      5-min Rain = 0
KAI1 270727Z 16010KT 18/17 A299 RMK A01 T01810174  RH  095%=      5-min Rain = 0
KAI1 270728Z 17009KT 18/17 A299 RMK A01 T01810173  RH  095%=      5-min Rain = 0
KAI1 270729Z 16010KT 18/17 A299 RMK A01 T01810174  RH  095%=      5-min Rain = 0
KAI1 270730Z 16010KT 18/17 A299 RMK A01 T01810174  RH  095%=      5-min Rain = 0
KAI1 270731Z 16010KT 18/17 A299 RMK A01 T01810174  RH  095%=      5-min Rain = 0
KAI1 270732Z 16010KT 18/17 A299 RMK A01 T01810174  RH  095%=      5-min Rain = 0
KAI1 270733Z 16010KT 18/17 A299 RMK A01 T01820174  RH  095%=      5-min Rain = 0
KAI1 270734Z 16011KT 18/17 A299 RMK A01 T01810174  RH  095%=      5-min Rain = 0
KAI1 270735Z 16010KT 18/17 A299 RMK A01 T01820174  RH  095%=      5-min Rain = 0
KAI1 270736Z 16011KT 18/17 A299 RMK A01 T01820174  RH  095%=      5-min Rain = 0
KAI1 270737Z 16011KT 18/17 A299 RMK A01 T01820174  RH  095%=      5-min Rain = 0
KAI1 270738Z 16011KT 18/17 A299 RMK A01 T01820174  RH  095%=      5-min Rain = 0
KAI1 270739Z 16010KT 18/17 A2989 RMK A01 T01820174  RH  095%=      5-min Rain = 0
KAI1 270740Z 16011KT 18/17 A2989 RMK A01 T01820174  RH  095%=      5-min Rain = 0
KAI1 270741Z 16010KT 18/17 A2989 RMK A01 T01820174  RH  095%=      5-min Rain = 0
KAI1 270742Z 16011KT 18/17 A2989 RMK A01 T01820174  RH  095%=      5-min Rain = 0
KAI1 270743Z 16011KT 18/17 A2989 RMK A01 T01820174  RH  095%=      5-min Rain = 0
KAI1 270744Z 16010KT 18/17 A2989 RMK A01 T01820174  RH  095%=      5-min Rain = 0
KAI1 270745Z 16011KT 18/17 A2989 RMK A01 T01820174  RH  095%=      5-min Rain = 0
KAI1 270746Z 16011KT 18/17 A2989 RMK A01 T01820174  RH  095%=      5-min Rain = 0
KAI1 270747Z 17011KT 18/17 A2989 RMK A01 T01820174  RH  095%=      5-min Rain = 0
KAI1 270748Z 16011KT 18/17 A2989 RMK A01 T01820174  RH  095%=      5-min Rain = 0
KAI1 270749Z 16011KT 18/17 A2989 RMK A01 T01820174  RH  095%=      5-min Rain = 0
KAI1 270750Z 16010KT 18/17 A2989 RMK A01 T01820174  RH  095%=      5-min Rain = 0
KAI1 270751Z 16011KT 18/17 A2989 RMK A01 T01820174  RH  095%=      5-min Rain = 0
KAI1 270752Z 16011KT 18/17 A2989 RMK A01 T01820174  RH  095%=      5-min Rain = 0
KAI1 270753Z 16011KT 18/17 A2989 RMK A01 T01820174  RH  095%=      5-min Rain = 0
KAI1 270754Z 16012KT 18/17 A2989 RMK A01 T01820174  RH  095%=      5-min Rain = 0
KAI1 270755Z 16011KT 18/17 A2989 RMK A01 T01820174  RH  095%=      5-min Rain = 0
KAI1 270756Z 16011KT 18/17 A2989 RMK A01 T01820174  RH  095%=      5-min Rain = 0
KAI1 270757Z 16011KT 18/17 A2989 RMK A01 T01820174  RH  095%=      5-min Rain = 0
KAI1 270758Z 15010KT 18/17 A2989 RMK A01 T01820174  RH  095%=      5-min Rain = 0
KAI1 270759Z 16010KT 18/17 A2989 RMK A01 T01820174  RH  095%=      5-min Rain = 0
KAI1 270800Z 16011KT 18/17 A2989 RMK A01 T01810174  RH  095%=      5-min Rain = 0
KAI1 270801Z 16011KT 18/17 A2989 RMK A01 T01810174  RH  095%=      5-min Rain = 0
KAI1 270802Z 16011KT 18/17 A2989 RMK A01 T01810174  RH  096%=      5-min Rain = 0
KAI1 270803Z 16011KT 18/17 A2989 RMK A01 T01810174  RH  096%=      5-min Rain = 0
KAI1 270804Z 16011KT 18/17 A2989 RMK A01 T01810174  RH  095%=      5-min Rain = 0
KAI1 270805Z 16011KT 18/17 A2989 RMK A01 T01800173  RH  095%=      5-min Rain = 0
KAI1 270806Z 16011KT 18/17 A2988 RMK A01 T01810173  RH  096%=      5-min Rain = 0
KAI1 270807Z 16011KT 18/17 A2988 RMK A01 T01800173  RH  096%=      5-min Rain = 0
KAI1 270808Z 16011KT 18/17 A2988 RMK A01 T01800173  RH  096%=      5-min Rain = 0
KAI1 270809Z 16011KT 18/17 A2988 RMK A01 T01800173  RH  096%=      5-min Rain = 0
KAI1 270810Z 16011KT 18/17 A2988 RMK A01 T01800173  RH  096%=      5-min Rain = 0
KAI1 270811Z 15012KT 18/17 A2988 RMK A01 T01800173  RH  096%=      5-min Rain = 0
KAI1 270812Z 15012KT 18/17 A2988 RMK A01 T01800173  RH  096%=      5-min Rain = 0
KAI1 270813Z 15011KT 18/17 A2988 RMK A01 T01800173  RH  096%=      5-min Rain = 0
KAI1 270814Z 16011KT 18/17 A2988 RMK A01 T01800173  RH  096%=      5-min Rain = 0
KAI1 270815Z 15011KT 18/17 A2988 RMK A01 T01800173  RH  096%=      5-min Rain = 0
KAI1 270816Z 16011KT 18/17 A2988 RMK A01 T01790172  RH  096%=      5-min Rain = 0
KAI1 270817Z 15011KT 18/17 A2988 RMK A01 T01800173  RH  096%=      5-min Rain = 0
KAI1 270818Z 15011KT 18/17 A2988 RMK A01 T01790173  RH  096%=      5-min Rain = 0
KAI1 270819Z 15011KT 18/17 A2988 RMK A01 T01790173  RH  096%=      5-min Rain = 0
KAI1 270820Z 15012KT 18/17 A2988 RMK A01 T01790172  RH  096%=      5-min Rain = 0
KAI1 270821Z 15011KT 18/17 A2988 RMK A01 T01790172  RH  096%=      5-min Rain = 0
KAI1 270822Z 15011KT 18/17 A2988 RMK A01 T01790172  RH  096%=      5-min Rain = 0
KAI1 270823Z 15011KT 18/17 A2988 RMK A01 T01790172  RH  096%=      5-min Rain = 0
KAI1 270824Z 15011KT 18/17 A2988 RMK A01 T01790172  RH  096%=      5-min Rain = 0
KAI1 270825Z 15010KT 18/17 A2988 RMK A01 T01790172  RH  096%=      5-min Rain = 0
KAI1 270826Z 15010KT 18/17 A2988 RMK A01 T01790172  RH  096%=      5-min Rain = 0
KAI1 270827Z 15010KT 18/17 A2988 RMK A01 T01790172  RH  096%=      5-min Rain = 0
KAI1 270828Z 15010KT 18/17 A2988 RMK A01 T01790172  RH  096%=      5-min Rain = 0
KAI1 270829Z 15010KT 18/17 A2988 RMK A01 T01790172  RH  096%=      5-min Rain = 0
KAI1 270830Z 15010KT 18/17 A2988 RMK A01 T01790172  RH  096%=      5-min Rain = 0
KAI1 270831Z 15010KT 18/17 A2988 RMK A01 T01780172  RH  096%=      5-min Rain = 0
KAI1 270832Z 15010KT 18/17 A2988 RMK A01 T01780172  RH  096%=      5-min Rain = 0
KAI1 270833Z 15010KT 18/17 A2988 RMK A01 T01780172  RH  096%=      5-min Rain = 0
KAI1 270834Z 15009KT 18/17 A2988 RMK A01 T01780172  RH  096%=      5-min Rain = 0
KAI1 270835Z 16011KT 18/17 A2988 RMK A01 T01780171  RH  096%=      5-min Rain = 0
KAI1 270836Z 15010KT 18/17 A2988 RMK A01 T01780171  RH  096%=      5-min Rain = 0
KAI1 270837Z 16010KT 18/17 A2988 RMK A01 T01770172  RH  096%=      5-min Rain = 0
KAI1 270838Z 16010KT 18/17 A2988 RMK A01 T01770171  RH  096%=      5-min Rain = 0
KAI1 270839Z 16010KT 18/17 A2988 RMK A01 T01770172  RH  096%=      5-min Rain = 0
KAI1 270840Z 16010KT 18/17 A2988 RMK A01 T01760171  RH  096%=      5-min Rain = 0
KAI1 270841Z 16011KT 18/17 A2988 RMK A01 T01760171  RH  097%=      5-min Rain = 0
KAI1 270842Z 16011KT 18/17 A2988 RMK A01 T01770171  RH  097%=      5-min Rain = 0
KAI1 270843Z 16011KT 18/17 A2988 RMK A01 T01770171  RH  097%=      5-min Rain = 0
KAI1 270844Z 16011KT 18/17 A2988 RMK A01 T01760171  RH  097%=      5-min Rain = 0
KAI1 270845Z 15012KT 18/17 A2987 RMK A01 T01760171  RH  097%=      5-min Rain = 0
KAI1 270846Z 15012KT 18/17 A2987 RMK A01 T01760171  RH  097%=      5-min Rain = 0
KAI1 270847Z 16011KT 18/17 A2987 RMK A01 T01770171  RH  097%=      5-min Rain = 0
KAI1 270848Z 16012KT 18/17 A2987 RMK A01 T01770171  RH  096%=      5-min Rain = 0
KAI1 270849Z 16012KT 18/17 A2987 RMK A01 T01770171  RH  096%=      5-min Rain = 0
KAI1 270850Z 15012KT 18/17 A2987 RMK A01 T01770171  RH  096%=      5-min Rain = 0
KAI1 270851Z 16013KT 18/17 A2987 RMK A01 T01770171  RH  096%=      5-min Rain = 0
KAI1 270852Z 15012KT 18/17 A2987 RMK A01 T01770171  RH  096%=      5-min Rain = 0
KAI1 270853Z 16012KT 18/17 A2987 RMK A01 T01770171  RH  096%=      5-min Rain = 0
KAI1 270854Z 16012KT 18/17 A2987 RMK A01 T01780171  RH  096%=      5-min Rain = 0
KAI1 270855Z 16012KT 18/17 A2987 RMK A01 T01780172  RH  096%=      5-min Rain = 0
KAI1 270856Z 16012KT 18/17 A2987 RMK A01 T01780171  RH  096%=      5-min Rain = 0
KAI1 270857Z 16012KT 18/17 A2987 RMK A01 T01780172  RH  096%=      5-min Rain = 0
KAI1 270858Z 16012KT 18/17 A2987 RMK A01 T01790171  RH  095%=      5-min Rain = 0
KAI1 270859Z 16012KT 18/17 A2987 RMK A01 T01790171  RH  095%=      5-min Rain = 0
KAI1 270900Z 16012KT 18/17 A2987 RMK A01 T01790171  RH  095%=      5-min Rain = 0
KAI1 270901Z 16011KT 18/17 A2987 RMK A01 T01790171  RH  095%=      5-min Rain = 0
KAI1 270902Z 16012KT 18/17 A2987 RMK A01 T01790171  RH  095%=      5-min Rain = 0
KAI1 270903Z 16011KT 18/17 A2987 RMK A01 T01790171  RH  095%=      5-min Rain = 0
KAI1 270904Z 16012KT 18/17 A2987 RMK A01 T01790171  RH  095%=      5-min Rain = 0
KAI1 270905Z 17011KT 18/17 A2987 RMK A01 T01790171  RH  095%=      5-min Rain = 0
KAI1 270906Z 17011KT 18/17 A2987 RMK A01 T01790171  RH  095%=      5-min Rain = 0
KAI1 270907Z 17012KT 18/17 A2987 RMK A01 T01790171  RH  095%=      5-min Rain = 0
KAI1 270908Z 17011KT 18/17 A2987 RMK A01 T01790171  RH  095%=      5-min Rain = 0
KAI1 270909Z 17011KT 18/17 A2987 RMK A01 T01800171  RH  095%=      5-min Rain = 0
KAI1 270910Z 17011KT 18/17 A2987 RMK A01 T01790171  RH  095%=      5-min Rain = 0
KAI1 270911Z 17011KT 18/17 A2987 RMK A01 T01790171  RH  095%=      5-min Rain = 0
KAI1 270912Z 17012KT 18/17 A2987 RMK A01 T01790171  RH  095%=      5-min Rain = 0
KAI1 270913Z 17013KT 18/17 A2987 RMK A01 T01800171  RH  095%=      5-min Rain = 0
KAI1 270914Z 18012KT 18/17 A2987 RMK A01 T01800171  RH  095%=      5-min Rain = 0
KAI1 270915Z 18012KT 18/17 A2987 RMK A01 T01800171  RH  094%=      5-min Rain = 0
KAI1 270916Z 18012KT 18/17 A2987 RMK A01 T01800171  RH  094%=      5-min Rain = 0
KAI1 270917Z 18012KT 18/17 A2987 RMK A01 T01800171  RH  094%=      5-min Rain = 0
KAI1 270918Z 18012KT 18/17 A2987 RMK A01 T01800171  RH  094%=      5-min Rain = 0
KAI1 270919Z 18012KT 18/17 A2987 RMK A01 T01800170  RH  094%=      5-min Rain = 0
KAI1 270920Z 18012KT 18/17 A2987 RMK A01 T01800170  RH  094%=      5-min Rain = 0
KAI1 270921Z 18012KT 18/17 A2987 RMK A01 T01800171  RH  094%=      5-min Rain = 0
KAI1 270922Z 18012KT 18/17 A2987 RMK A01 T01800171  RH  094%=      5-min Rain = 0
KAI1 270923Z 17012KT 18/17 A2987 RMK A01 T01800171  RH  094%=      5-min Rain = 0
KAI1 270924Z 17011KT 18/17 A2987 RMK A01 T01800171  RH  094%=      5-min Rain = 0
KAI1 270925Z 18011KT 18/17 A2987 RMK A01 T01800170  RH  094%=      5-min Rain = 0
KAI1 270926Z 17011KT 18/17 A2987 RMK A01 T01800171  RH  094%=      5-min Rain = 0
KAI1 270927Z 17010KT 18/17 A2987 RMK A01 T01800170  RH  094%=      5-min Rain = 0
KAI1 270928Z 17011KT 18/17 A2987 RMK A01 T01790170  RH  094%=      5-min Rain = 0
KAI1 270929Z 17011KT 18/17 A2987 RMK A01 T01790170  RH  094%=      5-min Rain = 0
KAI1 270930Z 17011KT 18/17 A2987 RMK A01 T01790170  RH  094%=      5-min Rain = 0
KAI1 270931Z 18011KT 18/17 A2987 RMK A01 T01800171  RH  094%=      5-min Rain = 0
KAI1 270932Z 18011KT 18/17 A2987 RMK A01 T01800170  RH  094%=      5-min Rain = 0
KAI1 270933Z 18011KT 18/17 A2987 RMK A01 T01800171  RH  094%=      5-min Rain = 0
KAI1 270934Z 18011KT 18/17 A2987 RMK A01 T01800170  RH  094%=      5-min Rain = 0
KAI1 270935Z 18010KT 18/17 A2987 RMK A01 T01800170  RH  094%=      5-min Rain = 0
KAI1 270936Z 17010KT 18/17 A2988 RMK A01 T01800170  RH  094%=      5-min Rain = 0
KAI1 270937Z 18010KT 18/17 A2988 RMK A01 T01790170  RH  094%=      5-min Rain = 0
KAI1 270938Z 17010KT 18/17 A2988 RMK A01 T01790170  RH  094%=      5-min Rain = 0
KAI1 270939Z 17010KT 18/17 A2988 RMK A01 T01790170  RH  094%=      5-min Rain = 0
KAI1 270940Z 17010KT 18/17 A2988 RMK A01 T01790170  RH  094%=      5-min Rain = 0
KAI1 270941Z 17010KT 18/17 A2988 RMK A01 T01790170  RH  094%=      5-min Rain = 0
KAI1 270942Z 17009KT 18/17 A2988 RMK A01 T01790170  RH  094%=      5-min Rain = 0
KAI1 270943Z 17009KT 18/17 A2988 RMK A01 T01790170  RH  094%=      5-min Rain = 0
KAI1 270944Z 17009KT 18/17 A2988 RMK A01 T01790170  RH  094%=      5-min Rain = 0
KAI1 270945Z 17009KT 18/17 A2988 RMK A01 T01790170  RH  094%=      5-min Rain = 0
KAI1 270946Z 17009KT 18/17 A2988 RMK A01 T01790170  RH  094%=      5-min Rain = 0
KAI1 270947Z 17008KT 18/17 A2988 RMK A01 T01790169  RH  094%=      5-min Rain = 0
KAI1 270948Z 17008KT 18/17 A2988 RMK A01 T01790170  RH  094%=      5-min Rain = 0
KAI1 270949Z 17009KT 18/17 A2988 RMK A01 T01780169  RH  095%=      5-min Rain = 0
KAI1 270950Z 17008KT 18/17 A2988 RMK A01 T01780169  RH  095%=      5-min Rain = 0
KAI1 270951Z 17008KT 18/17 A2988 RMK A01 T01780169  RH  095%=      5-min Rain = 0
KAI1 270952Z 17007KT 18/17 A2988 RMK A01 T01780169  RH  095%=      5-min Rain = 0
KAI1 270953Z 17007KT 18/17 A2988 RMK A01 T01770168  RH  095%=      5-min Rain = 0
KAI1 270954Z 17008KT 18/17 A2988 RMK A01 T01770168  RH  095%=      5-min Rain = 0
KAI1 270955Z 17008KT 18/17 A2988 RMK A01 T01760168  RH  095%=      5-min Rain = 0
KAI1 270956Z 16008KT 18/17 A2988 RMK A01 T01760169  RH  095%=      5-min Rain = 0
KAI1 270957Z 17008KT 18/17 A2988 RMK A01 T01760168  RH  095%=      5-min Rain = 0
KAI1 270958Z 17007KT 18/17 A2988 RMK A01 T01760168  RH  095%=      5-min Rain = 0
KAI1 270959Z 17007KT 18/17 A2988 RMK A01 T01760168  RH  095%=      5-min Rain = 0
KAI1 271000Z 17008KT 18/17 A2988 RMK A01 T01760168  RH  095%=      5-min Rain = 0
KAI1 271001Z 17007KT 18/17 A2988 RMK A01 T01760168  RH  095%=      5-min Rain = 0
KAI1 271002Z 17007KT 18/17 A2988 RMK A01 T01760168  RH  095%=      5-min Rain = 0
KAI1 271003Z 17007KT 18/17 A2988 RMK A01 T01760168  RH  095%=      5-min Rain = 0
KAI1 271004Z 17007KT 18/17 A2988 RMK A01 T01750168  RH  095%=      5-min Rain = 0
KAI1 271005Z 17008KT 18/17 A2988 RMK A01 T01760168  RH  095%=      5-min Rain = 0
KAI1 271006Z 17007KT 18/17 A2988 RMK A01 T01760169  RH  095%=      5-min Rain = 0
KAI1 271007Z 17007KT 18/17 A2988 RMK A01 T01750168  RH  095%=      5-min Rain = 0
KAI1 271008Z 17007KT 18/17 A2988 RMK A01 T01760168  RH  095%=      5-min Rain = 0
KAI1 271009Z 17006KT 18/17 A2988 RMK A01 T01760168  RH  095%=      5-min Rain = 0
KAI1 271010Z 17006KT 18/17 A2988 RMK A01 T01760168  RH  095%=      5-min Rain = 0
KAI1 271011Z 17006KT 18/17 A2988 RMK A01 T01750168  RH  095%=      5-min Rain = 0
KAI1 271012Z 17006KT 18/17 A2988 RMK A01 T01750167  RH  095%=      5-min Rain = 0
KAI1 271013Z 17006KT 18/17 A2988 RMK A01 T01750168  RH  095%=      5-min Rain = 0
KAI1 271014Z 17006KT 18/17 A2988 RMK A01 T01750167  RH  095%=      5-min Rain = 0
KAI1 271015Z 17006KT 17/17 A2988 RMK A01 T01740167  RH  095%=      5-min Rain = 0
KAI1 271016Z 17006KT 17/17 A2988 RMK A01 T01740167  RH  096%=      5-min Rain = 0
KAI1 271017Z 17006KT 17/17 A2988 RMK A01 T01740167  RH  096%=      5-min Rain = 0
KAI1 271018Z 17005KT 17/17 A2988 RMK A01 T01740167  RH  096%=      5-min Rain = 0
KAI1 271019Z 17005KT 17/17 A2988 RMK A01 T01740167  RH  096%=      5-min Rain = 0
KAI1 271020Z 17005KT 17/17 A2988 RMK A01 T01730167  RH  096%=      5-min Rain = 0
KAI1 271021Z 17005KT 17/17 A2988 RMK A01 T01730166  RH  096%=      5-min Rain = 0
KAI1 271022Z 17005KT 17/17 A2988 RMK A01 T01730166  RH  096%=      5-min Rain = 0
KAI1 271023Z 17005KT 17/17 A2988 RMK A01 T01720166  RH  096%=      5-min Rain = 0
KAI1 271024Z 17005KT 17/17 A2988 RMK A01 T01720165  RH  096%=      5-min Rain = 0
KAI1 271025Z 16005KT 17/17 A2988 RMK A01 T01720166  RH  096%=      5-min Rain = 0
KAI1 271026Z 17006KT 17/17 A2988 RMK A01 T01720166  RH  096%=      5-min Rain = 0
KAI1 271027Z 17005KT 17/17 A2988 RMK A01 T01720166  RH  096%=      5-min Rain = 0
KAI1 271028Z 17005KT 17/17 A2988 RMK A01 T01710166  RH  096%=      5-min Rain = 0
KAI1 271029Z 17005KT 17/17 A2988 RMK A01 T01720166  RH  097%=      5-min Rain = 0
KAI1 271030Z 17005KT 17/17 A2988 RMK A01 T01710166  RH  097%=      5-min Rain = 0
KAI1 271031Z 17006KT 17/17 A2988 RMK A01 T01710166  RH  097%=      5-min Rain = 0
KAI1 271032Z 17006KT 17/17 A2988 RMK A01 T01710166  RH  097%=      5-min Rain = 0
KAI1 271033Z 17006KT 17/17 A2988 RMK A01 T01710166  RH  097%=      5-min Rain = 0
KAI1 271034Z 18006KT 17/17 A2988 RMK A01 T01710166  RH  097%=      5-min Rain = 0
KAI1 271035Z 18006KT 17/17 A2988 RMK A01 T01710166  RH  097%=      5-min Rain = 0
KAI1 271036Z 18006KT 17/17 A2989 RMK A01 T01710165  RH  097%=      5-min Rain = 0
KAI1 271037Z 18006KT 17/17 A2989 RMK A01 T01710165  RH  097%=      5-min Rain = 0
KAI1 271038Z 18006KT 17/17 A2989 RMK A01 T01710165  RH  097%=      5-min Rain = 0
KAI1 271039Z 18006KT 17/17 A2989 RMK A01 T01710165  RH  097%=      5-min Rain = 0
KAI1 271040Z 18006KT 17/17 A2989 RMK A01 T01700165  RH  097%=      5-min Rain = 0
KAI1 271041Z 18006KT 17/17 A2989 RMK A01 T01700165  RH  097%=      5-min Rain = 0
KAI1 271042Z 18006KT 17/17 A2989 RMK A01 T01700165  RH  097%=      5-min Rain = 0
KAI1 271043Z 18006KT 17/16 A2989 RMK A01 T01700164  RH  097%=      5-min Rain = 0
KAI1 271044Z 18006KT 17/16 A2989 RMK A01 T01690164  RH  097%=      5-min Rain = 0
KAI1 271045Z 18006KT 17/16 A2989 RMK A01 T01690164  RH  097%=      5-min Rain = 0
KAI1 271046Z 18006KT 17/16 A2989 RMK A01 T01690164  RH  097%=      5-min Rain = 0
KAI1 271047Z 18006KT 17/16 A2989 RMK A01 T01690164  RH  097%=      5-min Rain = 0
KAI1 271048Z 18006KT 17/16 A2989 RMK A01 T01680164  RH  097%=      5-min Rain = 0
KAI1 271049Z 18006KT 17/16 A2989 RMK A01 T01680164  RH  097%=      5-min Rain = 0
KAI1 271050Z 18006KT 17/16 A2989 RMK A01 T01680164  RH  097%=      5-min Rain = 0
KAI1 271051Z 18006KT 17/16 A2989 RMK A01 T01680164  RH  097%=      5-min Rain = 0
KAI1 271052Z 18006KT 17/16 A2989 RMK A01 T01680164  RH  097%=      5-min Rain = 0
KAI1 271053Z 18006KT 17/16 A2989 RMK A01 T01680164  RH  097%=      5-min Rain = 0
KAI1 271054Z 18006KT 17/16 A2989 RMK A01 T01680163  RH  097%=      5-min Rain = 0
KAI1 271055Z 18007KT 17/16 A2989 RMK A01 T01680163  RH  097%=      5-min Rain = 0
KAI1 271056Z 18006KT 17/16 A2989 RMK A01 T01670163  RH  097%=      5-min Rain = 0
KAI1 271057Z 18006KT 17/16 A2989 RMK A01 T01670163  RH  097%=      5-min Rain = 0
KAI1 271058Z 18007KT 17/16 A2989 RMK A01 T01670163  RH  097%=      5-min Rain = 0
KAI1 271059Z 18007KT 17/16 A2989 RMK A01 T01670163  RH  097%=      5-min Rain = 0
KAI1 271100Z 18007KT 17/16 A2989 RMK A01 T01670163  RH  097%=      5-min Rain = 0
KAI1 271101Z 18007KT 17/16 A2989 RMK A01 T01670163  RH  097%=      5-min Rain = 0
KAI1 271102Z 18007KT 17/16 A2989 RMK A01 T01670163  RH  097%=      5-min Rain = 0
KAI1 271103Z 18007KT 17/16 A2989 RMK A01 T01670163  RH  097%=      5-min Rain = 0
KAI1 271104Z 18007KT 17/16 A2988 RMK A01 T01670163  RH  097%=      5-min Rain = 0
KAI1 271105Z 18007KT 17/16 A2989 RMK A01 T01670163  RH  097%=      5-min Rain = 0
KAI1 271106Z 18007KT 17/16 A2989 RMK A01 T01660162  RH  097%=      5-min Rain = 0
KAI1 271107Z 18006KT 17/16 A2989 RMK A01 T01660162  RH  098%=      5-min Rain = 0
KAI1 271108Z 18006KT 17/16 A2989 RMK A01 T01660162  RH  098%=      5-min Rain = 0
KAI1 271109Z 18006KT 17/16 A2989 RMK A01 T01660162  RH  098%=      5-min Rain = 0
KAI1 271110Z 18006KT 17/16 A2989 RMK A01 T01660162  RH  098%=      5-min Rain = 0
KAI1 271111Z 18006KT 17/16 A2989 RMK A01 T01660162  RH  098%=      5-min Rain = 0
KAI1 271112Z 18006KT 17/16 A2989 RMK A01 T01660163  RH  098%=      5-min Rain = 0
KAI1 271113Z 18006KT 17/16 A2989 RMK A01 T01660162  RH  098%=      5-min Rain = 0
KAI1 271114Z 18006KT 17/16 A2989 RMK A01 T01650162  RH  098%=      5-min Rain = 0
KAI1 271115Z 18006KT 17/16 A2989 RMK A01 T01650162  RH  098%=      5-min Rain = 0
KAI1 271116Z 18006KT 17/16 A2989 RMK A01 T01650161  RH  098%=      5-min Rain = 0
KAI1 271117Z 18006KT 17/16 A2989 RMK A01 T01650161  RH  098%=      5-min Rain = 0
KAI1 271118Z 18006KT 17/16 A2989 RMK A01 T01650161  RH  098%=      5-min Rain = 0
KAI1 271119Z 18006KT 17/16 A2989 RMK A01 T01650161  RH  098%=      5-min Rain = 0
KAI1 271120Z 17005KT 16/16 A2989 RMK A01 T01640161  RH  098%=      5-min Rain = 0
KAI1 271121Z 17005KT 16/16 A2989 RMK A01 T01640160  RH  098%=      5-min Rain = 0
KAI1 271122Z 17005KT 16/16 A2989 RMK A01 T01640160  RH  098%=      5-min Rain = 0
KAI1 271123Z 17005KT 16/16 A2989 RMK A01 T01630159  RH  098%=      5-min Rain = 0
KAI1 271124Z 17005KT 16/16 A2989 RMK A01 T01630159  RH  098%=      5-min Rain = 0
KAI1 271125Z 17005KT 16/16 A2989 RMK A01 T01620159  RH  098%=      5-min Rain = 0
KAI1 271126Z 17005KT 16/16 A2989 RMK A01 T01620159  RH  098%=      5-min Rain = 0
KAI1 271127Z 17006KT 16/16 A2989 RMK A01 T01620158  RH  098%=      5-min Rain = 0
KAI1 271128Z 18006KT 16/16 A299 RMK A01 T01620158  RH  098%=      5-min Rain = 0
KAI1 271129Z 18006KT 16/16 A2989 RMK A01 T01620158  RH  098%=      5-min Rain = 0
KAI1 271130Z 18006KT 16/16 A2989 RMK A01 T01620159  RH  098%=      5-min Rain = 0
KAI1 271131Z 18006KT 16/16 A2989 RMK A01 T01620159  RH  098%=      5-min Rain = 0
KAI1 271132Z 18006KT 16/16 A2989 RMK A01 T01620159  RH  098%=      5-min Rain = 0
KAI1 271133Z 18006KT 16/16 A2989 RMK A01 T01610158  RH  098%=      5-min Rain = 0
KAI1 271134Z 18007KT 16/16 A2989 RMK A01 T01610159  RH  098%=      5-min Rain = 0
KAI1 271135Z 18007KT 16/16 A299 RMK A01 T01610159  RH  098%=      5-min Rain = 0
KAI1 271136Z 18006KT 16/16 A299 RMK A01 T01620159  RH  098%=      5-min Rain = 0
KAI1 271137Z 18007KT 16/16 A2989 RMK A01 T01610159  RH  098%=      5-min Rain = 0
KAI1 271138Z 18006KT 16/16 A2989 RMK A01 T01610159  RH  098%=      5-min Rain = 0
KAI1 271139Z 18007KT 16/16 A2989 RMK A01 T01620159  RH  098%=      5-min Rain = 0
KAI1 271140Z 18007KT 16/16 A2989 RMK A01 T01620160  RH  098%=      5-min Rain = 0
KAI1 271141Z 18007KT 16/16 A299 RMK A01 T01620159  RH  098%=      5-min Rain = 0
KAI1 271142Z 18007KT 16/16 A299 RMK A01 T01620160  RH  098%=      5-min Rain = 0
KAI1 271143Z 18007KT 16/16 A299 RMK A01 T01620160  RH  098%=      5-min Rain = 0
KAI1 271144Z 19006KT 16/16 A299 RMK A01 T01620160  RH  098%=      5-min Rain = 0
KAI1 271145Z 18006KT 16/16 A299 RMK A01 T01630160  RH  098%=      5-min Rain = 0
KAI1 271146Z 18006KT 16/16 A299 RMK A01 T01630160  RH  098%=      5-min Rain = 0
KAI1 271147Z 18007KT 16/16 A299 RMK A01 T01630161  RH  098%=      5-min Rain = 0
KAI1 271148Z 19007KT 16/16 A299 RMK A01 T01630161  RH  098%=      5-min Rain = 0
KAI1 271149Z 19007KT 16/16 A299 RMK A01 T01640161  RH  098%=      5-min Rain = 0
KAI1 271150Z 19007KT 16/16 A299 RMK A01 T01630160  RH  098%=      5-min Rain = 0
KAI1 271151Z 18007KT 16/16 A299 RMK A01 T01630160  RH  098%=      5-min Rain = 0
KAI1 271152Z 18007KT 16/16 A299 RMK A01 T01630160  RH  098%=      5-min Rain = 0
KAI1 271153Z 18007KT 16/16 A299 RMK A01 T01630160  RH  098%=      5-min Rain = 0
KAI1 271154Z 18007KT 16/16 A299 RMK A01 T01630161  RH  098%=      5-min Rain = 0
KAI1 271155Z 19007KT 16/16 A299 RMK A01 T01640161  RH  098%=      5-min Rain = 0
KAI1 271156Z 18007KT 17/16 A299 RMK A01 T01650162  RH  098%=      5-min Rain = 0
KAI1 271157Z 18006KT 17/16 A299 RMK A01 T01650162  RH  098%=      5-min Rain = 0
KAI1 271158Z 18006KT 17/16 A299 RMK A01 T01650162  RH  098%=      5-min Rain = 0
KAI1 271159Z 18007KT 17/16 A299 RMK A01 T01650161  RH  098%=      5-min Rain = 0
KAI1 271200Z 18007KT 16/16 A299 RMK A01 T01640161  RH  098%=      5-min Rain = 0
KAI1 271201Z 18007KT 17/16 A299 RMK A01 T01650161  RH  098%=      5-min Rain = 0
KAI1 271202Z 19007KT 17/16 A299 RMK A01 T01650161  RH  098%=      5-min Rain = 0
KAI1 271203Z 19007KT 17/16 A299 RMK A01 T01650161  RH  098%=      5-min Rain = 0
KAI1 271204Z 19007KT 17/16 A299 RMK A01 T01650162  RH  098%=      5-min Rain = 0
KAI1 271205Z 19006KT 17/16 A299 RMK A01 T01650162  RH  098%=      5-min Rain = 0
KAI1 271206Z 19007KT 17/16 A299 RMK A01 T01650162  RH  098%=      5-min Rain = 0
KAI1 271207Z 19007KT 17/16 A299 RMK A01 T01660163  RH  098%=      5-min Rain = 0
KAI1 271208Z 19007KT 17/16 A299 RMK A01 T01660163  RH  098%=      5-min Rain = 0
KAI1 271209Z 19007KT 17/16 A299 RMK A01 T01660163  RH  098%=      5-min Rain = 0
KAI1 271210Z 19007KT 17/16 A299 RMK A01 T01670163  RH  098%=      5-min Rain = 0
KAI1 271211Z 19006KT 17/16 A299 RMK A01 T01660162  RH  097%=      5-min Rain = 0
KAI1 271212Z 19006KT 17/16 A299 RMK A01 T01660163  RH  098%=      5-min Rain = 0
KAI1 271213Z 19006KT 17/16 A299 RMK A01 T01670163  RH  098%=      5-min Rain = 0
KAI1 271214Z 19006KT 17/16 A299 RMK A01 T01660163  RH  098%=      5-min Rain = 0
KAI1 271215Z 19006KT 17/16 A299 RMK A01 T01660163  RH  098%=      5-min Rain = 0
KAI1 271216Z 19006KT 17/16 A299 RMK A01 T01670163  RH  098%=      5-min Rain = 0
KAI1 271217Z 19007KT 17/16 A299 RMK A01 T01670163  RH  098%=      5-min Rain = 0
KAI1 271218Z 19007KT 17/16 A299 RMK A01 T01680164  RH  098%=      5-min Rain = 0
KAI1 271219Z 19007KT 17/17 A299 RMK A01 T01690165  RH  098%=      5-min Rain = 0
KAI1 271220Z 19007KT 17/17 A299 RMK A01 T01690165  RH  097%=      5-min Rain = 0
KAI1 271221Z 18006KT 17/17 A299 RMK A01 T01700165  RH  097%=      5-min Rain = 0
KAI1 271222Z 19007KT 17/17 A299 RMK A01 T01700166  RH  097%=      5-min Rain = 0
KAI1 271223Z 19007KT 17/17 A299 RMK A01 T01700165  RH  097%=      5-min Rain = 0
KAI1 271224Z 19007KT 17/17 A299 RMK A01 T01700165  RH  097%=      5-min Rain = 0
KAI1 271225Z 19007KT 17/17 A299 RMK A01 T01710166  RH  097%=      5-min Rain = 0
KAI1 271226Z 19007KT 17/17 A299 RMK A01 T01720166  RH  097%=      5-min Rain = 0
KAI1 271227Z 19007KT 17/17 A299 RMK A01 T01720167  RH  097%=      5-min Rain = 0
KAI1 271228Z 19008KT 17/17 A299 RMK A01 T01720166  RH  096%=      5-min Rain = 0
KAI1 271229Z 19008KT 17/17 A299 RMK A01 T01720166  RH  096%=      5-min Rain = 0
KAI1 271230Z 19007KT 17/17 A299 RMK A01 T01730167  RH  096%=      5-min Rain = 0
KAI1 271231Z 19007KT 17/17 A299 RMK A01 T01730167  RH  096%=      5-min Rain = 0
KAI1 271232Z 19007KT 17/17 A299 RMK A01 T01740167  RH  096%=      5-min Rain = 0
KAI1 271233Z 19007KT 17/17 A299 RMK A01 T01740168  RH  096%=      5-min Rain = 0
KAI1 271234Z 19007KT 18/17 A299 RMK A01 T01750168  RH  096%=      5-min Rain = 0
KAI1 271235Z 19007KT 18/17 A2991 RMK A01 T01750168  RH  096%=      5-min Rain = 0
KAI1 271236Z 19007KT 18/17 A2991 RMK A01 T01750168  RH  096%=      5-min Rain = 0
KAI1 271237Z 19006KT 18/17 A2991 RMK A01 T01750168  RH  096%=      5-min Rain = 0
KAI1 271238Z 19006KT 18/17 A2991 RMK A01 T01750168  RH  096%=      5-min Rain = 0
KAI1 271239Z 19007KT 18/17 A2991 RMK A01 T01750168  RH  095%=      5-min Rain = 0
KAI1 271240Z 19006KT 18/17 A2991 RMK A01 T01750168  RH  095%=      5-min Rain = 0
KAI1 271241Z 19006KT 18/17 A299 RMK A01 T01750168  RH  095%=      5-min Rain = 0
KAI1 271242Z 19006KT 18/17 A299 RMK A01 T01760168  RH  095%=      5-min Rain = 0
KAI1 271243Z 19006KT 18/17 A2991 RMK A01 T01760169  RH  095%=      5-min Rain = 0
KAI1 271244Z 19007KT 18/17 A2991 RMK A01 T01770169  RH  095%=      5-min Rain = 0
KAI1 271245Z 19007KT 18/17 A2991 RMK A01 T01770170  RH  095%=      5-min Rain = 0
KAI1 271246Z 19006KT 18/17 A2991 RMK A01 T01780170  RH  095%=      5-min Rain = 0
KAI1 271247Z 18007KT 18/17 A2991 RMK A01 T01780170  RH  095%=      5-min Rain = 0
KAI1 271248Z 18007KT 18/17 A2991 RMK A01 T01790171  RH  095%=      5-min Rain = 0
KAI1 271249Z 18007KT 18/17 A2991 RMK A01 T01790171  RH  095%=      5-min Rain = 0
KAI1 271250Z 18007KT 18/17 A2991 RMK A01 T01800171  RH  095%=      5-min Rain = 0
KAI1 271251Z 18008KT 18/17 A2991 RMK A01 T01800171  RH  094%=      5-min Rain = 0
KAI1 271252Z 18007KT 18/17 A2991 RMK A01 T01810171  RH  094%=      5-min Rain = 0
KAI1 271253Z 18007KT 18/17 A2991 RMK A01 T01810172  RH  094%=      5-min Rain = 0
KAI1 271254Z 18008KT 18/17 A2991 RMK A01 T01810172  RH  094%=      5-min Rain = 0
KAI1 271255Z 18008KT 18/17 A2991 RMK A01 T01810172  RH  094%=      5-min Rain = 0
KAI1 271256Z 18008KT 18/17 A2991 RMK A01 T01820173  RH  095%=      5-min Rain = 0
KAI1 271257Z 18008KT 18/17 A2991 RMK A01 T01820174  RH  095%=      5-min Rain = 0
KAI1 271258Z 18008KT 18/17 A2991 RMK A01 T01830174  RH  095%=      5-min Rain = 0
KAI1 271259Z 18008KT 18/17 A2991 RMK A01 T01830174  RH  094%=      5-min Rain = 0
KAI1 271300Z 19009KT 18/18 A2991 RMK A01 T01840175  RH  094%=      5-min Rain = 0
KAI1 271301Z 18009KT 19/18 A2991 RMK A01 T01850175  RH  094%=      5-min Rain = 0
KAI1 271302Z 19010KT 19/18 A2991 RMK A01 T01850176  RH  094%=      5-min Rain = 0
KAI1 271303Z 19009KT 19/18 A2991 RMK A01 T01860176  RH  094%=      5-min Rain = 0
KAI1 271304Z 19010KT 19/18 A2991 RMK A01 T01870177  RH  094%=      5-min Rain = 0
KAI1 271305Z 19009KT 19/18 A2991 RMK A01 T01870177  RH  094%=      5-min Rain = 0
KAI1 271306Z 19009KT 19/18 A2991 RMK A01 T01880178  RH  094%=      5-min Rain = 0
KAI1 271307Z 19009KT 19/18 A2991 RMK A01 T01880178  RH  094%=      5-min Rain = 0
KAI1 271308Z 19010KT 19/18 A2991 RMK A01 T01890178  RH  093%=      5-min Rain = 0
KAI1 271309Z 19010KT 19/18 A2991 RMK A01 T01890178  RH  093%=      5-min Rain = 0
KAI1 271310Z 19011KT 19/18 A2991 RMK A01 T01900179  RH  093%=      5-min Rain = 0
KAI1 271311Z 19010KT 19/18 A2991 RMK A01 T01900178  RH  093%=      5-min Rain = 0
KAI1 271312Z 19010KT 19/18 A2991 RMK A01 T01900178  RH  093%=      5-min Rain = 0
KAI1 271313Z 19010KT 19/18 A2991 RMK A01 T01900179  RH  093%=      5-min Rain = 0
KAI1 271314Z 19011KT 19/18 A2991 RMK A01 T01900178  RH  093%=      5-min Rain = 0
KAI1 271315Z 19010KT 19/18 A2991 RMK A01 T01910179  RH  093%=      5-min Rain = 0
KAI1 271316Z 19009KT 19/18 A2991 RMK A01 T01910179  RH  093%=      5-min Rain = 0
KAI1 271317Z 19008KT 19/18 A299 RMK A01 T01920180  RH  093%=      5-min Rain = 0
KAI1 271318Z 19010KT 19/18 A299 RMK A01 T01920181  RH  093%=      5-min Rain = 0
KAI1 271319Z 19010KT 19/18 A299 RMK A01 T01920180  RH  093%=      5-min Rain = 0
KAI1 271320Z 19010KT 19/18 A299 RMK A01 T01930180  RH  093%=      5-min Rain = 0
KAI1 271321Z 19010KT 19/18 A299 RMK A01 T01930181  RH  093%=      5-min Rain = 0
KAI1 271322Z 19010KT 19/18 A299 RMK A01 T01940181  RH  092%=      5-min Rain = 0
KAI1 271323Z 19012KT 19/18 A299 RMK A01 T01940181  RH  092%=      5-min Rain = 0
KAI1 271324Z 19011KT 19/18 A299 RMK A01 T01940181  RH  092%=      5-min Rain = 0
KAI1 271325Z 19012KT 20/18 A299 RMK A01 T01950182  RH  092%=      5-min Rain = 0
KAI1 271326Z 19013KT 20/18 A299 RMK A01 T01950181  RH  092%=      5-min Rain = 0
KAI1 271327Z 19012KT 20/18 A299 RMK A01 T01950182  RH  092%=      5-min Rain = 0
KAI1 271328Z 19013KT 20/18 A299 RMK A01 T01950182  RH  092%=      5-min Rain = 0
KAI1 271329Z 19011KT 20/18 A299 RMK A01 T01960183  RH  092%=      5-min Rain = 0
KAI1 271330Z 19010KT 20/18 A299 RMK A01 T01960183  RH  092%=      5-min Rain = 0
KAI1 271331Z 19011KT 20/18 A299 RMK A01 T01970184  RH  092%=      5-min Rain = 0
KAI1 271332Z 19012KT 20/18 A299 RMK A01 T01970184  RH  092%=      5-min Rain = 0
KAI1 271333Z 19012KT 20/18 A299 RMK A01 T01980183  RH  091%=      5-min Rain = 0
KAI1 271334Z 19011KT 20/18 A299 RMK A01 T01980184  RH  092%=      5-min Rain = 0
KAI1 271335Z 19014KT 20/18 A299 RMK A01 T01980184  RH  091%=      5-min Rain = 0
KAI1 271336Z 19014KT 20/18 A299 RMK A01 T01980183  RH  091%=      5-min Rain = 0
KAI1 271337Z 19012KT 20/18 A299 RMK A01 T01980183  RH  091%=      5-min Rain = 0
KAI1 271338Z 19011KT 20/19 A299 RMK A01 T01990185  RH  092%=      5-min Rain = 0
KAI1 271339Z 19012KT 20/18 A299 RMK A01 T01990184  RH  091%=      5-min Rain = 0
KAI1 271340Z 19013KT 20/18 A299 RMK A01 T01990184  RH  091%=      5-min Rain = 0
KAI1 271341Z 19014KT 20/18 A299 RMK A01 T02000184  RH  091%=      5-min Rain = 0
KAI1 271342Z 19015KT 20/19 A299 RMK A01 T02000185  RH  091%=      5-min Rain = 0
KAI1 271343Z 19014KT 20/18 A2991 RMK A01 T02000184  RH  090%=      5-min Rain = 0
KAI1 271344Z 20014KT 20/19 A299 RMK A01 T02000185  RH  091%=      5-min Rain = 0
KAI1 271345Z 20013KT 20/19 A299 RMK A01 T02010185  RH  090%=      5-min Rain = 0
KAI1 271346Z 20011KT 20/19 A299 RMK A01 T02010185  RH  090%=      5-min Rain = 0
KAI1 271347Z 19011KT 20/19 A2991 RMK A01 T02010187  RH  092%=      5-min Rain = 0
KAI1 271348Z 19013KT 20/19 A2991 RMK A01 T02030187  RH  091%=      5-min Rain = 0
KAI1 271349Z 19013KT 20/19 A2991 RMK A01 T02030186  RH  090%=      5-min Rain = 0
KAI1 271350Z 19012KT 20/19 A2991 RMK A01 T02030187  RH  090%=      5-min Rain = 0
KAI1 271351Z 20013KT 20/19 A2991 RMK A01 T02030187  RH  090%=      5-min Rain = 0
KAI1 271352Z 20012KT 20/19 A2991 RMK A01 T02040187  RH  090%=      5-min Rain = 0
KAI1 271353Z 19012KT 20/19 A2991 RMK A01 T02040187  RH  090%=      5-min Rain = 0
KAI1 271354Z 19014KT 20/19 A299 RMK A01 T02040187  RH  090%=      5-min Rain = 0
KAI1 271355Z 19013KT 20/19 A299 RMK A01 T02040186  RH  089%=      5-min Rain = 0
KAI1 271356Z 19011KT 20/19 A2991 RMK A01 T02040187  RH  090%=      5-min Rain = 0
KAI1 271357Z 19012KT 21/19 A2991 RMK A01 T02050188  RH  090%=      5-min Rain = 0
KAI1 271358Z 20013KT 21/19 A2991 RMK A01 T02050188  RH  090%=      5-min Rain = 0
KAI1 271359Z 19013KT 21/19 A2991 RMK A01 T02050188  RH  089%=      5-min Rain = 0
KAI1 271400Z 19013KT 21/19 A2991 RMK A01 T02060188  RH  090%=      5-min Rain = 0
KAI1 271401Z 19011KT 21/19 A2991 RMK A01 T02050188  RH  090%=      5-min Rain = 0
KAI1 271402Z 19011KT 21/19 A2991 RMK A01 T02060190  RH  090%=      5-min Rain = 0
KAI1 271403Z 19012KT 21/19 A2991 RMK A01 T02060190  RH  090%=      5-min Rain = 0
KAI1 271404Z 19013KT 21/19 A2991 RMK A01 T02070188  RH  089%=      5-min Rain = 0
KAI1 271405Z 19012KT 21/19 A2991 RMK A01 T02070188  RH  089%=      5-min Rain = 0
KAI1 271406Z 19011KT 21/19 A2991 RMK A01 T02070189  RH  089%=      5-min Rain = 0
KAI1 271407Z 20011KT 21/19 A299 RMK A01 T02070190  RH  090%=      5-min Rain = 0
KAI1 271408Z 20012KT 21/19 A299 RMK A01 T02080189  RH  089%=      5-min Rain = 0
KAI1 271409Z 20011KT 21/19 A299 RMK A01 T02090191  RH  089%=      5-min Rain = 0
KAI1 271410Z 21011KT 21/19 A299 RMK A01 T02100192  RH  089%=      5-min Rain = 0
KAI1 271411Z 21015KT 21/19 A299 RMK A01 T02110190  RH  088%=      5-min Rain = 0
KAI1 271412Z 20014KT 21/19 A299 RMK A01 T02110189  RH  087%=      5-min Rain = 0
KAI1 271413Z 21014KT 21/19 A299 RMK A01 T02110189  RH  087%=      5-min Rain = 0
KAI1 271414Z 20014KT 21/19 A299 RMK A01 T02110190  RH  087%=      5-min Rain = 0
KAI1 271415Z 21015KT 21/19 A299 RMK A01 T02120189  RH  087%=      5-min Rain = 0
KAI1 271416Z 20015KT 21/19 A299 RMK A01 T02120188  RH  086%=      5-min Rain = 0
KAI1 271417Z 20015KT 21/19 A299 RMK A01 T02120189  RH  087%=      5-min Rain = 0
KAI1 271418Z 20013KT 21/19 A299 RMK A01 T02120189  RH  087%=      5-min Rain = 0
KAI1 271419Z 20013KT 21/19 A299 RMK A01 T02120190  RH  087%=      5-min Rain = 0
KAI1 271420Z 20015KT 21/19 A299 RMK A01 T02120188  RH  086%=      5-min Rain = 0
KAI1 271421Z 20015KT 21/19 A299 RMK A01 T02120187  RH  086%=      5-min Rain = 0
KAI1 271422Z 21013KT 21/19 A299 RMK A01 T02120188  RH  086%=      5-min Rain = 0
KAI1 271423Z 21015KT 21/19 A299 RMK A01 T02130189  RH  086%=      5-min Rain = 0
KAI1 271424Z 20014KT 21/19 A299 RMK A01 T02130189  RH  086%=      5-min Rain = 0
KAI1 271425Z 21012KT 21/19 A299 RMK A01 T02140189  RH  086%=      5-min Rain = 0
KAI1 271426Z 20013KT 21/19 A2991 RMK A01 T02140191  RH  086%=      5-min Rain = 0
KAI1 271427Z 21014KT 22/19 A2991 RMK A01 T02150191  RH  086%=      5-min Rain = 0
KAI1 271428Z 21013KT 22/19 A2991 RMK A01 T02160191  RH  086%=      5-min Rain = 0
KAI1 271429Z 22013KT 22/19 A299 RMK A01 T02170191  RH  085%=      5-min Rain = 0
KAI1 271430Z 21013KT 22/19 A299 RMK A01 T02170190  RH  085%=      5-min Rain = 0
KAI1 271431Z 20014KT 22/19 A299 RMK A01 T02180191  RH  085%=      5-min Rain = 0
KAI1 271432Z 20012KT 22/19 A299 RMK A01 T02180191  RH  085%=      5-min Rain = 0
KAI1 271433Z 20014KT 22/19 A299 RMK A01 T02180192  RH  085%=      5-min Rain = 0
KAI1 271434Z 21014KT 22/19 A299 RMK A01 T02190191  RH  084%=      5-min Rain = 0
KAI1 271435Z 21016KT 22/19 A299 RMK A01 T02190189  RH  083%=      5-min Rain = 0
KAI1 271436Z 21013KT 22/19 A299 RMK A01 T02190190  RH  083%=      5-min Rain = 0
KAI1 271437Z 21015KT 22/19 A299 RMK A01 T02190190  RH  084%=      5-min Rain = 0
KAI1 271438Z 21014KT 22/19 A299 RMK A01 T02190190  RH  083%=      5-min Rain = 0
KAI1 271439Z 20015KT 22/19 A299 RMK A01 T02190190  RH  083%=      5-min Rain = 0
KAI1 271440Z 21015KT 22/19 A299 RMK A01 T02190189  RH  083%=      5-min Rain = 0
KAI1 271441Z 20015KT 22/19 A299 RMK A01 T02190190  RH  083%=      5-min Rain = 0
KAI1 271442Z 21015KT 22/19 A299 RMK A01 T02200190  RH  083%=      5-min Rain = 0
KAI1 271443Z 21013KT 22/19 A299 RMK A01 T02210190  RH  083%=      5-min Rain = 0
KAI1 271444Z 21014KT 22/19 A299 RMK A01 T02210193  RH  084%=      5-min Rain = 0
KAI1 271445Z 21015KT 22/19 A299 RMK A01 T02230192  RH  082%=      5-min Rain = 0
KAI1 271446Z 21015G20KT 22/19 A299 RMK A01 T02240191  RH  082%=      5-min Rain = 0
KAI1 271447Z 22017KT 23/19 A299 RMK A01 T02250189  RH  080%=      5-min Rain = 0
KAI1 271448Z 22015KT 23/19 A299 RMK A01 T02250188  RH  080%=      5-min Rain = 0
KAI1 271449Z 21017KT 23/19 A299 RMK A01 T02250190  RH  081%=      5-min Rain = 0
KAI1 271450Z 21015KT 23/19 A299 RMK A01 T02250189  RH  080%=      5-min Rain = 0
KAI1 271451Z 21016KT 23/19 A299 RMK A01 T02250190  RH  081%=      5-min Rain = 0
KAI1 271452Z 21016KT 23/19 A299 RMK A01 T02260189  RH  080%=      5-min Rain = 0
KAI1 271453Z 22016KT 23/19 A299 RMK A01 T02260190  RH  080%=      5-min Rain = 0
KAI1 271454Z 21016KT 23/19 A299 RMK A01 T02270189  RH  079%=      5-min Rain = 0
KAI1 271455Z 22013KT 23/19 A299 RMK A01 T02270190  RH  080%=      5-min Rain = 0
KAI1 271456Z 22016KT 23/19 A299 RMK A01 T02280191  RH  080%=      5-min Rain = 0
KAI1 271457Z 21015KT 23/19 A299 RMK A01 T02280191  RH  079%=      5-min Rain = 0
KAI1 271458Z 21013KT 23/19 A299 RMK A01 T02280191  RH  079%=      5-min Rain = 0
KAI1 271459Z 22017KT 23/19 A299 RMK A01 T02280192  RH  080%=      5-min Rain = 0
KAI1 271500Z 21014KT 23/19 A299 RMK A01 T02280189  RH  078%=      5-min Rain = 0
KAI1 271501Z 21014KT 23/19 A299 RMK A01 T02290193  RH  080%=      5-min Rain = 0
KAI1 271502Z 21017KT 23/19 A299 RMK A01 T02300191  RH  079%=      5-min Rain = 0
KAI1 271503Z 21015KT 23/19 A299 RMK A01 T02300191  RH  079%=      5-min Rain = 0
KAI1 271504Z 21014KT 23/19 A299 RMK A01 T02300192  RH  079%=      5-min Rain = 0
KAI1 271505Z 21013KT 23/19 A299 RMK A01 T02310191  RH  078%=      5-min Rain = 0
KAI1 271506Z 20015KT 23/19 A299 RMK A01 T02320191  RH  078%=      5-min Rain = 0
KAI1 271507Z 21013KT 23/19 A299 RMK A01 T02320192  RH  078%=      5-min Rain = 0
KAI1 271508Z 21014KT 23/19 A299 RMK A01 T02320192  RH  078%=      5-min Rain = 0
KAI1 271509Z 21015KT 23/19 A299 RMK A01 T02330189  RH  076%=      5-min Rain = 0
KAI1 271510Z 21014KT 23/19 A299 RMK A01 T02330187  RH  076%=      5-min Rain = 0
KAI1 271511Z 20013KT 23/19 A299 RMK A01 T02330190  RH  077%=      5-min Rain = 0
KAI1 271512Z 21012KT 23/19 A299 RMK A01 T02330187  RH  075%=      5-min Rain = 0
KAI1 271513Z 21014KT 23/19 A299 RMK A01 T02340190  RH  076%=      5-min Rain = 0
KAI1 271514Z 20013KT 24/19 A299 RMK A01 T02350190  RH  076%=      5-min Rain = 0
KAI1 271515Z 20014KT 23/19 A299 RMK A01 T02340190  RH  076%=      5-min Rain = 0
KAI1 271516Z 21012KT 23/19 A299 RMK A01 T02340190  RH  076%=      5-min Rain = 0
KAI1 271517Z 21012KT 24/20 A299 RMK A01 T02360195  RH  078%=      5-min Rain = 0
KAI1 271518Z 22014KT 24/19 A299 RMK A01 T02390186  RH  072%=      5-min Rain = 0
KAI1 271519Z 23016KT 24/18 A299 RMK A01 T02400178  RH  068%=      5-min Rain = 0
KAI1 271520Z 23014KT 24/18 A299 RMK A01 T02380183  RH  071%=      5-min Rain = 0
KAI1 271521Z 22013KT 24/19 A299 RMK A01 T02390185  RH  072%=      5-min Rain = 0
KAI1 271522Z 21012KT 24/19 A299 RMK A01 T02400191  RH  074%=      5-min Rain = 0
KAI1 271523Z 21012KT 24/19 A299 RMK A01 T02390189  RH  074%=      5-min Rain = 0
KAI1 271524Z 22013KT 24/19 A299 RMK A01 T02380190  RH  075%=      5-min Rain = 0
KAI1 271525Z 22014KT 24/18 A299 RMK A01 T02390184  RH  071%=      5-min Rain = 0
KAI1 271526Z 22012KT 24/18 A299 RMK A01 T02390183  RH  071%=      5-min Rain = 0
KAI1 271527Z 22012KT 24/19 A299 RMK A01 T02400187  RH  072%=      5-min Rain = 0
KAI1 271528Z 21013KT 24/19 A299 RMK A01 T02410185  RH  071%=      5-min Rain = 0
KAI1 271529Z 21012KT 24/19 A299 RMK A01 T02410186  RH  071%=      5-min Rain = 0
KAI1 271530Z 21014KT 24/19 A299 RMK A01 T02420187  RH  072%=      5-min Rain = 0
KAI1 271531Z 22014KT 24/19 A299 RMK A01 T02430187  RH  071%=      5-min Rain = 0
KAI1 271532Z 21013KT 24/19 A299 RMK A01 T02430188  RH  071%=      5-min Rain = 0
KAI1 271533Z 21013KT 24/19 A299 RMK A01 T02420187  RH  071%=      5-min Rain = 0
KAI1 271534Z 22014KT 24/19 A299 RMK A01 T02420189  RH  072%=      5-min Rain = 0
KAI1 271535Z 22011KT 24/19 A299 RMK A01 T02430188  RH  071%=      5-min Rain = 0
KAI1 271536Z 22012KT 24/19 A299 RMK A01 T02440188  RH  071%=      5-min Rain = 0
KAI1 271537Z 22014KT 24/19 A299 RMK A01 T02440187  RH  071%=      5-min Rain = 0
KAI1 271538Z 23014KT 24/18 A299 RMK A01 T02440182  RH  068%=      5-min Rain = 0
KAI1 271539Z 23014KT 25/18 A299 RMK A01 T02450182  RH  068%=      5-min Rain = 0
KAI1 271540Z 23014KT 25/18 A299 RMK A01 T02460175  RH  065%=      5-min Rain = 0
KAI1 271541Z 23013KT 25/18 A299 RMK A01 T02470178  RH  066%=      5-min Rain = 0
KAI1 271542Z 24013KT 25/18 A299 RMK A01 T02480179  RH  066%=      5-min Rain = 0
KAI1 271543Z 23011KT 25/19 A299 RMK A01 T02480185  RH  068%=      5-min Rain = 0
KAI1 271544Z 23012KT 25/18 A299 RMK A01 T02480183  RH  067%=      5-min Rain = 0
KAI1 271545Z 22012KT 25/19 A299 RMK A01 T02490185  RH  067%=      5-min Rain = 0
KAI1 271546Z 22015KT 25/18 A299 RMK A01 T02500181  RH  065%=      5-min Rain = 0
KAI1 271547Z 22015KT 25/18 A299 RMK A01 T02490177  RH  064%=      5-min Rain = 0
KAI1 271548Z 22014KT 25/17 A299 RMK A01 T02490174  RH  063%=      5-min Rain = 0
KAI1 271549Z 23012KT 25/18 A299 RMK A01 T02480178  RH  065%=      5-min Rain = 0
KAI1 271550Z 23012KT 25/18 A299 RMK A01 T02500178  RH  064%=      5-min Rain = 0
KAI1 271551Z 22013KT 25/18 A299 RMK A01 T02510178  RH  064%=      5-min Rain = 0
KAI1 271552Z 23013KT 25/18 A299 RMK A01 T02500178  RH  064%=      5-min Rain = 0
KAI1 271553Z 23013KT 25/18 A299 RMK A01 T02490179  RH  065%=      5-min Rain = 0
KAI1 271554Z 22012KT 25/18 A299 RMK A01 T02500181  RH  065%=      5-min Rain = 0
KAI1 271555Z 22014KT 25/18 A299 RMK A01 T02520177  RH  063%=      5-min Rain = 0
KAI1 271556Z 23012KT 25/18 A299 RMK A01 T02520176  RH  063%=      5-min Rain = 0
KAI1 271557Z 22014KT 25/18 A299 RMK A01 T02520178  RH  063%=      5-min Rain = 0
KAI1 271558Z 23013KT 25/18 A299 RMK A01 T02530177  RH  063%=      5-min Rain = 0
KAI1 271559Z 23012KT 25/18 A299 RMK A01 T02520176  RH  063%=      5-min Rain = 0
KAI1 271600Z 23013KT 25/18 A299 RMK A01 T02530175  RH  062%=      5-min Rain = 0
KAI1 271601Z 22011KT 25/18 A299 RMK A01 T02520177  RH  063%=      5-min Rain = 0
KAI1 271602Z 22013G18KT 26/18 A299 RMK A01 T02550178  RH  063%=      5-min Rain = 0
KAI1 271603Z 22013KT 26/17 A299 RMK A01 T02570172  RH  059%=      5-min Rain = 0
KAI1 271604Z 22012KT 26/18 A299 RMK A01 T02560176  RH  061%=      5-min Rain = 0
KAI1 271605Z 22012KT 26/18 A299 RMK A01 T02570176  RH  061%=      5-min Rain = 0
KAI1 271606Z 22015KT 26/17 A299 RMK A01 T02570174  RH  060%=      5-min Rain = 0
KAI1 271607Z 22015KT 26/17 A299 RMK A01 T02580170  RH  058%=      5-min Rain = 0
KAI1 271608Z 22013KT 26/18 A299 RMK A01 T02570175  RH  060%=      5-min Rain = 0
KAI1 271609Z 22012KT 26/17 A299 RMK A01 T02570170  RH  059%=      5-min Rain = 0
KAI1 271610Z 22013KT 26/16 A299 RMK A01 T02570164  RH  056%=      5-min Rain = 0
KAI1 271611Z 22014KT 26/17 A299 RMK A01 T02570168  RH  058%=      5-min Rain = 0
KAI1 271612Z 21013KT 26/17 A299 RMK A01 T02560168  RH  058%=      5-min Rain = 0
KAI1 271613Z 22011KT 26/17 A299 RMK A01 T02560171  RH  059%=      5-min Rain = 0
KAI1 271614Z 22014KT 26/17 A299 RMK A01 T02570171  RH  059%=      5-min Rain = 0
KAI1 271615Z 22012KT 26/17 A299 RMK A01 T02580166  RH  057%=      5-min Rain = 0
KAI1 271616Z 21011KT 26/17 A299 RMK A01 T02570169  RH  058%=      5-min Rain = 0
KAI1 271617Z 22011KT 26/17 A299 RMK A01 T02590174  RH  059%=      5-min Rain = 0
KAI1 271618Z 21011KT 26/17 A299 RMK A01 T02600173  RH  059%=      5-min Rain = 0
KAI1 271619Z 22012KT 26/17 A299 RMK A01 T02600167  RH  056%=      5-min Rain = 0
KAI1 271620Z 23013KT 26/16 A299 RMK A01 T02600164  RH  055%=      5-min Rain = 0
KAI1 271621Z 23011KT 26/17 A299 RMK A01 T02600173  RH  059%=      5-min Rain = 0
KAI1 271622Z 21015KT 26/17 A299 RMK A01 T02620171  RH  057%=      5-min Rain = 0
KAI1 271623Z 22015KT 26/17 A299 RMK A01 T02630170  RH  057%=      5-min Rain = 0
KAI1 271624Z 22012KT 26/17 A299 RMK A01 T02630169  RH  056%=      5-min Rain = 0
KAI1 271625Z 23012G17KT 26/17 A299 RMK A01 T02620169  RH  056%=      5-min Rain = 0
KAI1 271626Z 21015KT 26/17 A299 RMK A01 T02630165  RH  055%=      5-min Rain = 0
KAI1 271627Z 22013KT 26/17 A299 RMK A01 T02640165  RH  055%=      5-min Rain = 0
KAI1 271628Z 21015KT 26/17 A299 RMK A01 T02630166  RH  055%=      5-min Rain = 0
KAI1 271629Z 21013KT 26/17 A299 RMK A01 T02620173  RH  058%=      5-min Rain = 0
KAI1 271630Z 21011KT 26/17 A299 RMK A01 T02610167  RH  056%=      5-min Rain = 0
KAI1 271631Z 21012KT 26/17 A299 RMK A01 T02610173  RH  058%=      5-min Rain = 0
KAI1 271632Z 21016KT 26/17 A299 RMK A01 T02640166  RH  055%=      5-min Rain = 0
KAI1 271633Z 21015KT 26/16 A2989 RMK A01 T02640162  RH  053%=      5-min Rain = 0
KAI1 271634Z 21014KT 26/16 A299 RMK A01 T02640160  RH  053%=      5-min Rain = 0
KAI1 271635Z 21014KT 26/16 A299 RMK A01 T02640161  RH  053%=      5-min Rain = 0
KAI1 271636Z 22013KT 26/16 A299 RMK A01 T02640158  RH  052%=      5-min Rain = 0
KAI1 271637Z 21013KT 26/17 A299 RMK A01 T02630165  RH  055%=      5-min Rain = 0
KAI1 271638Z 22013KT 26/17 A299 RMK A01 T02640169  RH  056%=      5-min Rain = 0
KAI1 271639Z 21015KT 27/17 A2989 RMK A01 T02650169  RH  055%=      5-min Rain = 0
KAI1 271640Z 21017KT 27/16 A2989 RMK A01 T02660160  RH  052%=      5-min Rain = 0
KAI1 271641Z 21016KT 27/16 A2989 RMK A01 T02660158  RH  052%=      5-min Rain = 0
KAI1 271642Z 21014KT 27/16 A2989 RMK A01 T02650164  RH  054%=      5-min Rain = 0
KAI1 271643Z 22012KT 27/17 A2989 RMK A01 T02650169  RH  055%=      5-min Rain = 0
KAI1 271644Z 22015KT 27/16 A2989 RMK A01 T02650164  RH  054%=      5-min Rain = 0
KAI1 271645Z 21015KT 27/16 A2989 RMK A01 T02660159  RH  052%=      5-min Rain = 0
KAI1 271646Z 23016KT 27/16 A2989 RMK A01 T02680156  RH  050%=      5-min Rain = 0
KAI1 271647Z 22015KT 27/15 A2989 RMK A01 T02680149  RH  048%=      5-min Rain = 0
KAI1 271648Z 22015KT 27/15 A2989 RMK A01 T02660152  RH  049%=      5-min Rain = 0
KAI1 271649Z 23015KT 27/16 A2989 RMK A01 T02660158  RH  051%=      5-min Rain = 0
KAI1 271650Z 22016KT 27/15 A2989 RMK A01 T02680149  RH  048%=      5-min Rain = 0
KAI1 271651Z 22013KT 27/16 A2989 RMK A01 T02670155  RH  050%=      5-min Rain = 0
KAI1 271652Z 22012KT 27/15 A2989 RMK A01 T02670152  RH  049%=      5-min Rain = 0
KAI1 271653Z 22015KT 27/16 A2989 RMK A01 T02680156  RH  050%=      5-min Rain = 0
KAI1 271654Z 21014KT 27/15 A2989 RMK A01 T02680150  RH  048%=      5-min Rain = 0
KAI1 271655Z 21016KT 27/15 A2989 RMK A01 T02690150  RH  048%=      5-min Rain = 0
KAI1 271656Z 20015KT 27/15 A2989 RMK A01 T02700152  RH  049%=      5-min Rain = 0
KAI1 271657Z 21016KT 27/15 A2989 RMK A01 T02700150  RH  048%=      5-min Rain = 0
KAI1 271658Z 22015KT 27/15 A2989 RMK A01 T02700146  RH  047%=      5-min Rain = 0
KAI1 271659Z 23014KT 27/15 A2989 RMK A01 T02700149  RH  047%=      5-min Rain = 0
KAI1 271700Z 22017KT 27/12 A2989 RMK A01 T02720124  RH  040%=      5-min Rain = 0
KAI1 271701Z 22018KT 27/13 A2989 RMK A01 T02730128  RH  041%=      5-min Rain = 0
KAI1 271702Z 22014KT 27/13 A2989 RMK A01 T02720133  RH  043%=      5-min Rain = 0
KAI1 271703Z 23012KT 27/15 A2989 RMK A01 T02720146  RH  046%=      5-min Rain = 0
KAI1 271704Z 21014KT 27/15 A2989 RMK A01 T02740149  RH  046%=      5-min Rain = 0
KAI1 271705Z 21013KT 27/15 A2988 RMK A01 T02740147  RH  046%=      5-min Rain = 0
KAI1 271706Z 23016KT 27/14 A2988 RMK A01 T02740140  RH  044%=      5-min Rain = 0
KAI1 271707Z 23014KT 27/12 A2988 RMK A01 T02740123  RH  039%=      5-min Rain = 0
KAI1 271708Z 22014G19KT 27/13 A2988 RMK A01 T02740129  RH  041%=      5-min Rain = 0
KAI1 271709Z 21015KT 27/13 A2988 RMK A01 T02740133  RH  042%=      5-min Rain = 0
KAI1 271710Z 21013KT 28/14 A2988 RMK A01 T02750141  RH  044%=      5-min Rain = 0
KAI1 271711Z 22015KT 28/14 A2988 RMK A01 T02750144  RH  045%=      5-min Rain = 0
KAI1 271712Z 22015KT 28/14 A2988 RMK A01 T02760142  RH  044%=      5-min Rain = 0
KAI1 271713Z 22018KT 28/13 A2988 RMK A01 T02760134  RH  041%=      5-min Rain = 0
KAI1 271714Z 22017KT 28/13 A2988 RMK A01 T02770126  RH  039%=      5-min Rain = 0
KAI1 271715Z 23014KT 28/13 A2988 RMK A01 T02750126  RH  040%=      5-min Rain = 0
KAI1 271716Z 23014KT 28/13 A2988 RMK A01 T02760131  RH  041%=      5-min Rain = 0
KAI1 271717Z 23015KT 28/14 A2988 RMK A01 T02760137  RH  042%=      5-min Rain = 0
KAI1 271718Z 22014KT 28/14 A2988 RMK A01 T02760138  RH  043%=      5-min Rain = 0
KAI1 271719Z 22017KT 28/14 A2988 RMK A01 T02760138  RH  043%=      5-min Rain = 0
KAI1 271720Z 21014KT 28/14 A2988 RMK A01 T02760136  RH  042%=      5-min Rain = 0
KAI1 271721Z 22012KT 28/14 A2988 RMK A01 T02750143  RH  044%=      5-min Rain = 0
KAI1 271722Z 23013KT 28/13 A2988 RMK A01 T02770129  RH  040%=      5-min Rain = 0
KAI1 271723Z 24014KT 28/13 A2988 RMK A01 T02790132  RH  040%=      5-min Rain = 0
KAI1 271724Z 24011KT 28/13 A2988 RMK A01 T02800130  RH  040%=      5-min Rain = 0
KAI1 271725Z 23011KT 28/14 A2988 RMK A01 T02790137  RH  042%=      5-min Rain = 0
KAI1 271726Z 22012KT 28/14 A2988 RMK A01 T02790140  RH  043%=      5-min Rain = 0
KAI1 271727Z 21014KT 28/14 A2988 RMK A01 T02800144  RH  043%=      5-min Rain = 0
KAI1 271728Z 22012KT 28/14 A2988 RMK A01 T02820137  RH  041%=      5-min Rain = 0
KAI1 271729Z 21013KT 28/14 A2988 RMK A01 T02810137  RH  041%=      5-min Rain = 0
KAI1 271730Z 21014KT 28/14 A2988 RMK A01 T02790139  RH  042%=      5-min Rain = 0
KAI1 271731Z 21014KT 28/15 A2988 RMK A01 T02790145  RH  044%=      5-min Rain = 0
KAI1 271732Z 21013KT 28/14 A2988 RMK A01 T02800138  RH  042%=      5-min Rain = 0
KAI1 271733Z 22012KT 28/14 A2988 RMK A01 T02810137  RH  041%=      5-min Rain = 0
KAI1 271734Z 23012KT 28/14 A2988 RMK A01 T02810136  RH  041%=      5-min Rain = 0
KAI1 271735Z 22012KT 28/14 A2988 RMK A01 T02810142  RH  043%=      5-min Rain = 0
KAI1 271736Z 22016KT 28/13 A2987 RMK A01 T02830133  RH  040%=      5-min Rain = 0
KAI1 271737Z 22015KT 28/13 A2987 RMK A01 T02840126  RH  038%=      5-min Rain = 0
KAI1 271738Z 22014KT 28/13 A2987 RMK A01 T02840127  RH  038%=      5-min Rain = 0
KAI1 271739Z 22014KT 29/13 A2987 RMK A01 T02850126  RH  037%=      5-min Rain = 0
KAI1 271740Z 21013KT 28/13 A2987 RMK A01 T02840127  RH  038%=      5-min Rain = 0
KAI1 271741Z 21012KT 28/13 A2988 RMK A01 T02840131  RH  039%=      5-min Rain = 0
KAI1 271742Z 22011KT 28/14 A2988 RMK A01 T02840136  RH  040%=      5-min Rain = 0
KAI1 271743Z 22011KT 28/13 A2987 RMK A01 T02840132  RH  039%=      5-min Rain = 0
KAI1 271744Z 22016KT 28/13 A2987 RMK A01 T02840132  RH  039%=      5-min Rain = 0
KAI1 271745Z 23015KT 28/12 A2987 RMK A01 T02840115  RH  035%=      5-min Rain = 0
KAI1 271746Z 22015KT 28/12 A2987 RMK A01 T02840116  RH  035%=      5-min Rain = 0
KAI1 271747Z 22012KT 28/13 A2987 RMK A01 T02840125  RH  038%=      5-min Rain = 0
KAI1 271748Z 21013KT 29/12 A2987 RMK A01 T02880124  RH  036%=      5-min Rain = 0
KAI1 271749Z 22011KT 29/13 A2987 RMK A01 T02880126  RH  037%=      5-min Rain = 0
KAI1 271750Z 23012KT 29/13 A2987 RMK A01 T02890130  RH  038%=      5-min Rain = 0
KAI1 271751Z 23013KT 29/13 A2987 RMK A01 T02900126  RH  036%=      5-min Rain = 0
KAI1 271752Z 23013KT 29/12 A2987 RMK A01 T02880122  RH  036%=      5-min Rain = 0
KAI1 271753Z 23012G17KT 29/11 A2987 RMK A01 T02860112  RH  034%=      5-min Rain = 0
KAI1 271754Z 24014KT 29/11 A2987 RMK A01 T02850113  RH  035%=      5-min Rain = 0
KAI1 271755Z 23014KT 29/11 A2987 RMK A01 T02850112  RH  034%=      5-min Rain = 0
KAI1 271756Z 22013G18KT 29/12 A2987 RMK A01 T02870120  RH  035%=      5-min Rain = 0
KAI1 271757Z 21014KT 29/12 A2987 RMK A01 T02890124  RH  036%=      5-min Rain = 0
KAI1 271758Z 22010KT 29/11 A2987 RMK A01 T02890111  RH  033%=      5-min Rain = 0
KAI1 271759Z 21013KT 29/12 A2987 RMK A01 T02860121  RH  036%=      5-min Rain = 0
KAI1 271800Z 22015KT 29/12 A2987 RMK A01 T02870119  RH  035%=      5-min Rain = 0
KAI1 271801Z 22012KT 29/11 A2987 RMK A01 T02870113  RH  034%=      5-min Rain = 0
KAI1 271802Z 22014KT 29/12 A2987 RMK A01 T02870115  RH  034%=      5-min Rain = 0
KAI1 271803Z 23012KT 29/12 A2987 RMK A01 T02870117  RH  035%=      5-min Rain = 0
KAI1 271804Z 23014KT 29/11 A2987 RMK A01 T02880114  RH  034%=      5-min Rain = 0
KAI1 271805Z 22011KT 29/11 A2987 RMK A01 T02890112  RH  033%=      5-min Rain = 0
KAI1 271806Z 23011KT 29/12 A2987 RMK A01 T02900123  RH  036%=      5-min Rain = 0
KAI1 271807Z 24015KT 29/12 A2987 RMK A01 T02900122  RH  035%=      5-min Rain = 0
KAI1 271808Z 24014KT 29/12 A2987 RMK A01 T02890120  RH  035%=      5-min Rain = 0
KAI1 271809Z 23016KT 29/11 A2987 RMK A01 T02890114  RH  034%=      5-min Rain = 0
KAI1 271810Z 23015KT 29/10 A2987 RMK A01 T02900104  RH  031%=      5-min Rain = 0
KAI1 271811Z 23015KT 29/11 A2987 RMK A01 T02900112  RH  033%=      5-min Rain = 0
KAI1 271812Z 22012KT 29/12 A2987 RMK A01 T02890117  RH  034%=      5-min Rain = 0
KAI1 271813Z 21012KT 29/12 A2987 RMK A01 T02890117  RH  034%=      5-min Rain = 0
KAI1 271814Z 22015KT 29/12 A2987 RMK A01 T02910120  RH  035%=      5-min Rain = 0
KAI1 271815Z 24012KT 29/12 A2987 RMK A01 T02940121  RH  034%=      5-min Rain = 0
KAI1 271816Z 24011KT 30/11 A2987 RMK A01 T02950108  RH  031%=      5-min Rain = 0
KAI1 271817Z 24012KT 29/12 A2987 RMK A01 T02940118  RH  034%=      5-min Rain = 0
KAI1 271818Z 24012KT 29/11 A2987 RMK A01 T02940114  RH  033%=      5-min Rain = 0
KAI1 271819Z 24017KT 30/11 A2987 RMK A01 T02970108  RH  031%=      5-min Rain = 0
KAI1 271820Z 23016G21KT 30/10 A2987 RMK A01 T02970100  RH  029%=      5-min Rain = 0
KAI1 271821Z 24019KT 30/09 A2987 RMK A01 T02970088  RH  027%=      5-min Rain = 0
KAI1 271822Z 23015KT 30/10 A2987 RMK A01 T02950095  RH  029%=      5-min Rain = 0
KAI1 271823Z 22015KT 30/10 A2987 RMK A01 T02960101  RH  030%=      5-min Rain = 0
KAI1 271824Z 22013G18KT 30/09 A2987 RMK A01 T02970089  RH  027%=      5-min Rain = 0
KAI1 271825Z 24015KT 30/10 A2987 RMK A01 T02960096  RH  029%=      5-min Rain = 0
KAI1 271826Z 24013KT 30/11 A2987 RMK A01 T02960108  RH  031%=      5-min Rain = 0
KAI1 271827Z 23015KT 30/10 A2987 RMK A01 T02970099  RH  029%=      5-min Rain = 0
KAI1 271828Z 21014KT 30/10 A2987 RMK A01 T02970100  RH  029%=      5-min Rain = 0
KAI1 271829Z 23017KT 30/10 A2987 RMK A01 T02970101  RH  030%=      5-min Rain = 0
KAI1 271830Z 23016G21KT 30/09 A2987 RMK A01 T02980086  RH  027%=      5-min Rain = 0
KAI1 271831Z 24015KT 30/08 A2987 RMK A01 T02960083  RH  026%=      5-min Rain = 0
KAI1 271832Z 24015KT 30/09 A2986 RMK A01 T02950086  RH  027%=      5-min Rain = 0
KAI1 271833Z 25013KT 30/08 A2986 RMK A01 T02950083  RH  026%=      5-min Rain = 0
KAI1 271834Z 24013KT 30/09 A2986 RMK A01 T02950094  RH  029%=      5-min Rain = 0
KAI1 271835Z 24014G21KT 30/11 A2986 RMK A01 T02970105  RH  030%=      5-min Rain = 0
KAI1 271836Z 24018KT 30/08 A2986 RMK A01 T02990079  RH  025%=      5-min Rain = 0
KAI1 271837Z 24017KT 30/07 A2986 RMK A01 T02990071  RH  024%=      5-min Rain = 0
KAI1 271838Z 24014KT 30/07 A2986 RMK A01 T02980073  RH  024%=      5-min Rain = 0
KAI1 271839Z 24015KT 30/07 A2986 RMK A01 T02980073  RH  024%=      5-min Rain = 0
KAI1 271840Z 23014KT 30/07 A2986 RMK A01 T02980073  RH  024%=      5-min Rain = 0
KAI1 271841Z 23018KT 30/08 A2986 RMK A01 T02990076  RH  025%=      5-min Rain = 0
KAI1 271842Z 23014KT 30/08 A2986 RMK A01 T02990083  RH  026%=      5-min Rain = 0
KAI1 271843Z 23013KT 30/08 A2986 RMK A01 T03010075  RH  024%=      5-min Rain = 0
KAI1 271844Z 24011KT 30/07 A2986 RMK A01 T02990070  RH  024%=      5-min Rain = 0
KAI1 271845Z 23014KT 30/09 A2986 RMK A01 T02990086  RH  026%=      5-min Rain = 0
KAI1 271846Z 23013KT 30/08 A2986 RMK A01 T03000079  RH  025%=      5-min Rain = 0
KAI1 271847Z 23016KT 30/08 A2986 RMK A01 T03000080  RH  025%=      5-min Rain = 0
KAI1 271848Z 23015KT 30/08 A2986 RMK A01 T03000077  RH  025%=      5-min Rain = 0
KAI1 271849Z 22013KT 30/07 A2986 RMK A01 T03000074  RH  024%=      5-min Rain = 0
KAI1 271850Z 22011KT 30/08 A2986 RMK A01 T03000079  RH  025%=      5-min Rain = 0
KAI1 271851Z 26012KT 30/09 A2986 RMK A01 T03000086  RH  026%=      5-min Rain = 0
KAI1 271852Z 26015KT 30/08 A2986 RMK A01 T03000084  RH  026%=      5-min Rain = 0
KAI1 271853Z 26015KT 30/08 A2986 RMK A01 T03000078  RH  025%=      5-min Rain = 0
KAI1 271854Z 25012KT 30/07 A2986 RMK A01 T02980066  RH  023%=      5-min Rain = 0
KAI1 271855Z 24012KT 30/08 A2986 RMK A01 T02960075  RH  025%=      5-min Rain = 0
KAI1 271856Z 26012KT 30/08 A2986 RMK A01 T02970076  RH  025%=      5-min Rain = 0
KAI1 271857Z 25016KT 30/08 A2985 RMK A01 T02980079  RH  025%=      5-min Rain = 0
KAI1 271858Z 25014KT 30/07 A2985 RMK A01 T02990067  RH  023%=      5-min Rain = 0
KAI1 271859Z 25014KT 30/08 A2985 RMK A01 T02980078  RH  025%=      5-min Rain = 0
KAI1 271900Z 23015KT 30/08 A2985 RMK A01 T03000081  RH  026%=      5-min Rain = 0
KAI1 271901Z 24014KT 30/08 A2985 RMK A01 T03010076  RH  025%=      5-min Rain = 0
KAI1 271902Z 24013KT 30/07 A2985 RMK A01 T03010072  RH  024%=      5-min Rain = 0
KAI1 271903Z 23013KT 30/08 A2985 RMK A01 T03000076  RH  025%=      5-min Rain = 0
KAI1 271904Z 24013KT 30/07 A2985 RMK A01 T03000069  RH  023%=      5-min Rain = 0
KAI1 271905Z 24014KT 30/08 A2985 RMK A01 T03000075  RH  024%=      5-min Rain = 0
KAI1 271906Z 24011KT 30/08 A2985 RMK A01 T02990079  RH  025%=      5-min Rain = 0
KAI1 271907Z 24008KT 30/07 A2985 RMK A01 T03000071  RH  024%=      5-min Rain = 0
KAI1 271908Z 24012KT 30/07 A2985 RMK A01 T03000066  RH  023%=      5-min Rain = 0
KAI1 271909Z 23009KT 30/06 A2985 RMK A01 T02980058  RH  022%=      5-min Rain = 0
KAI1 271910Z 22009KT 30/07 A2985 RMK A01 T02970068  RH  024%=      5-min Rain = 0
KAI1 271911Z 23013KT 30/08 A2985 RMK A01 T03000083  RH  026%=      5-min Rain = 0
KAI1 271912Z 22015G22KT 30/09 A2985 RMK A01 T03030088  RH  026%=      5-min Rain = 0
KAI1 271913Z 22015KT 30/08 A2985 RMK A01 T03040079  RH  025%=      5-min Rain = 0
KAI1 271914Z 23013KT 30/07 A2985 RMK A01 T03030074  RH  024%=      5-min Rain = 0
KAI1 271915Z 22012KT 30/07 A2984 RMK A01 T03030067  RH  023%=      5-min Rain = 0
KAI1 271916Z 22010KT 30/07 A2984 RMK A01 T03010065  RH  023%=      5-min Rain = 0
KAI1 271917Z 22011KT 30/08 A2984 RMK A01 T03000084  RH  026%=      5-min Rain = 0
KAI1 271918Z 23012KT 30/09 A2984 RMK A01 T03040090  RH  026%=      5-min Rain = 0
KAI1 271919Z 22012KT 31/08 A2984 RMK A01 T03050079  RH  024%=      5-min Rain = 0
KAI1 271920Z 22012KT 30/08 A2984 RMK A01 T03040077  RH  024%=      5-min Rain = 0
KAI1 271921Z 21011KT 30/08 A2984 RMK A01 T03030077  RH  024%=      5-min Rain = 0
KAI1 271922Z 21013KT 30/09 A2984 RMK A01 T03030087  RH  026%=      5-min Rain = 0
KAI1 271923Z 21011KT 30/08 A2984 RMK A01 T03040079  RH  025%=      5-min Rain = 0
KAI1 271924Z 22013KT 30/08 A2984 RMK A01 T03040075  RH  024%=      5-min Rain = 0
KAI1 271925Z 22014G19KT 30/08 A2984 RMK A01 T03040080  RH  025%=      5-min Rain = 0
KAI1 271926Z 22014KT 31/09 A2984 RMK A01 T03060087  RH  026%=      5-min Rain = 0
KAI1 271927Z 23015KT 31/08 A2984 RMK A01 T03060076  RH  024%=      5-min Rain = 0
KAI1 271928Z 23015KT 31/07 A2983 RMK A01 T03050073  RH  023%=      5-min Rain = 0
KAI1 271929Z 22013KT 30/08 A2983 RMK A01 T03040078  RH  024%=      5-min Rain = 0
KAI1 271930Z 20014KT 30/09 A2983 RMK A01 T03040088  RH  026%=      5-min Rain = 0
KAI1 271931Z 20011KT 31/09 A2983 RMK A01 T03060091  RH  026%=      5-min Rain = 0
KAI1 271932Z 22012KT 31/09 A2983 RMK A01 T03070094  RH  027%=      5-min Rain = 0
KAI1 271933Z 20011KT 31/09 A2983 RMK A01 T03080090  RH  026%=      5-min Rain = 0
KAI1 271934Z 19009KT 31/09 A2983 RMK A01 T03090089  RH  026%=      5-min Rain = 0
KAI1 271935Z 18010KT 31/10 A2983 RMK A01 T03080099  RH  027%=      5-min Rain = 0
KAI1 271936Z 18012KT 31/10 A2983 RMK A01 T03080099  RH  027%=      5-min Rain = 0
KAI1 271937Z 19011KT 31/09 A2983 RMK A01 T03080091  RH  026%=      5-min Rain = 0
KAI1 271938Z 19014KT 31/10 A2983 RMK A01 T03070098  RH  027%=      5-min Rain = 0
KAI1 271939Z 19012KT 31/10 A2983 RMK A01 T03070095  RH  027%=      5-min Rain = 0
KAI1 271940Z 20013KT 31/08 A2983 RMK A01 T03080083  RH  025%=      5-min Rain = 0
KAI1 271941Z 21011KT 31/08 A2983 RMK A01 T03080081  RH  024%=      5-min Rain = 0
KAI1 271942Z 20016KT 31/08 A2983 RMK A01 T03090077  RH  024%=      5-min Rain = 0
KAI1 271943Z 19013KT 31/08 A2983 RMK A01 T03090082  RH  024%=      5-min Rain = 0
KAI1 271944Z 19015KT 31/08 A2983 RMK A01 T03090078  RH  024%=      5-min Rain = 0
KAI1 271945Z 18014KT 31/08 A2983 RMK A01 T03090078  RH  024%=      5-min Rain = 0
KAI1 271946Z 19013KT 31/09 A2983 RMK A01 T03090085  RH  025%=      5-min Rain = 0
KAI1 271947Z 19011KT 31/09 A2983 RMK A01 T03090085  RH  025%=      5-min Rain = 0
KAI1 271948Z 20017KT 31/10 A2983 RMK A01 T03110099  RH  027%=      5-min Rain = 0
KAI1 271949Z 20016KT 31/08 A2983 RMK A01 T03130084  RH  024%=      5-min Rain = 0
KAI1 271950Z 21013KT 31/09 A2983 RMK A01 T03130088  RH  025%=      5-min Rain = 0
KAI1 271951Z 20012KT 31/08 A2983 RMK A01 T03120075  RH  023%=      5-min Rain = 0
KAI1 271952Z 21010KT 31/08 A2983 RMK A01 T03110082  RH  024%=      5-min Rain = 0
KAI1 271953Z 20010KT 31/08 A2982 RMK A01 T03120082  RH  024%=      5-min Rain = 0
KAI1 271954Z 20012KT 31/09 A2982 RMK A01 T03130087  RH  025%=      5-min Rain = 0
KAI1 271955Z 20014KT 31/09 A2982 RMK A01 T03130093  RH  026%=      5-min Rain = 0
KAI1 271956Z 19013KT 31/10 A2982 RMK A01 T03130098  RH  026%=      5-min Rain = 0
KAI1 271957Z 19016KT 31/10 A2982 RMK A01 T03140097  RH  026%=      5-min Rain = 0
KAI1 271958Z 19014KT 31/09 A2982 RMK A01 T03130086  RH  024%=      5-min Rain = 0
KAI1 271959Z 19013KT 31/10 A2982 RMK A01 T03120096  RH  026%=      5-min Rain = 0
KAI1 272000Z 19014KT 31/10 A2982 RMK A01 T03120095  RH  026%=      5-min Rain = 0
KAI1 272001Z 20011KT 31/11 A2982 RMK A01 T03120110  RH  029%=      5-min Rain = 0
KAI1 272002Z 19012KT 32/08 A2982 RMK A01 T03150081  RH  023%=      5-min Rain = 0
KAI1 272003Z 21012KT 31/09 A2982 RMK A01 T03140087  RH  024%=      5-min Rain = 0
KAI1 272004Z 20012KT 31/08 A2982 RMK A01 T03140076  RH  023%=      5-min Rain = 0
KAI1 272005Z 19011KT 31/08 A2982 RMK A01 T03130075  RH  023%=      5-min Rain = 0
KAI1 272006Z 19013KT 31/09 A2982 RMK A01 T03120090  RH  025%=      5-min Rain = 0
KAI1 272007Z 18017KT 31/10 A2982 RMK A01 T03120099  RH  027%=      5-min Rain = 0
KAI1 272008Z 19017KT 31/09 A2982 RMK A01 T03120089  RH  025%=      5-min Rain = 0
KAI1 272009Z 20016KT 31/08 A2982 RMK A01 T03120076  RH  023%=      5-min Rain = 0
KAI1 272010Z 20017KT 31/08 A2982 RMK A01 T03110080  RH  024%=      5-min Rain = 0
KAI1 272011Z 19019G24KT 31/08 A2982 RMK A01 T03110082  RH  024%=      5-min Rain = 0
KAI1 272012Z 19020G26KT 31/08 A2981 RMK A01 T03120078  RH  023%=      5-min Rain = 0
KAI1 272013Z 19018KT 31/09 A2982 RMK A01 T03110088  RH  025%=      5-min Rain = 0
KAI1 272014Z 19018KT 31/08 A2981 RMK A01 T03120084  RH  024%=      5-min Rain = 0
KAI1 272015Z 19017KT 31/08 A2982 RMK A01 T03120077  RH  023%=      5-min Rain = 0
KAI1 272016Z 19014KT 31/07 A2981 RMK A01 T03110065  RH  021%=      5-min Rain = 0
KAI1 272017Z 19016KT 31/08 A2981 RMK A01 T03100080  RH  024%=      5-min Rain = 0
KAI1 272018Z 19019KT 31/08 A2981 RMK A01 T03120080  RH  024%=      5-min Rain = 0
KAI1 272019Z 19020KT 31/08 A2981 RMK A01 T03120078  RH  023%=      5-min Rain = 0
KAI1 272020Z 19018KT 31/08 A2981 RMK A01 T03110078  RH  023%=      5-min Rain = 0
KAI1 272021Z 20014KT 31/07 A2981 RMK A01 T03110065  RH  022%=      5-min Rain = 0
KAI1 272022Z 20014KT 31/08 A2981 RMK A01 T03090082  RH  024%=      5-min Rain = 0
KAI1 272023Z 21015KT 31/09 A2981 RMK A01 T03100087  RH  025%=      5-min Rain = 0
KAI1 272024Z 21014KT 31/09 A2981 RMK A01 T03120089  RH  025%=      5-min Rain = 0
KAI1 272025Z 19017KT 31/09 A2981 RMK A01 T03130094  RH  026%=      5-min Rain = 0
KAI1 272026Z 18016KT 31/08 A2981 RMK A01 T03130082  RH  024%=      5-min Rain = 0
KAI1 272027Z 18014KT 31/10 A2981 RMK A01 T03120096  RH  026%=      5-min Rain = 0
KAI1 272028Z 19017G22KT 31/10 A2981 RMK A01 T03120100  RH  027%=      5-min Rain = 0
KAI1 272029Z 20016KT 31/08 A2981 RMK A01 T03130077  RH  023%=      5-min Rain = 0
KAI1 272030Z 20017KT 31/08 A2981 RMK A01 T03120077  RH  023%=      5-min Rain = 0
KAI1 272031Z 20016KT 31/08 A2981 RMK A01 T03110082  RH  024%=      5-min Rain = 0
KAI1 272032Z 20015KT 31/08 A2981 RMK A01 T03110079  RH  024%=      5-min Rain = 0
KAI1 272033Z 20017KT 31/09 A2981 RMK A01 T03110086  RH  025%=      5-min Rain = 0
KAI1 272034Z 19016KT 31/10 A2981 RMK A01 T03120098  RH  027%=      5-min Rain = 0
KAI1 272035Z 18017G22KT 31/10 A2981 RMK A01 T03140100  RH  027%=      5-min Rain = 0
KAI1 272036Z 18018KT 31/10 A2981 RMK A01 T03140098  RH  026%=      5-min Rain = 0
KAI1 272037Z 18019KT 31/09 A298 RMK A01 T03140086  RH  024%=      5-min Rain = 0
KAI1 272038Z 20016G21KT 31/09 A298 RMK A01 T03130091  RH  025%=      5-min Rain = 0
KAI1 272039Z 20014KT 31/08 A2981 RMK A01 T03130081  RH  024%=      5-min Rain = 0
KAI1 272040Z 20017KT 31/08 A2981 RMK A01 T03140082  RH  024%=      5-min Rain = 0
KAI1 272041Z 20015G20KT 31/08 A298 RMK A01 T03140083  RH  024%=      5-min Rain = 0
KAI1 272042Z 20017KT 31/09 A298 RMK A01 T03130092  RH  025%=      5-min Rain = 0
KAI1 272043Z 19014KT 31/08 A298 RMK A01 T03130077  RH  023%=      5-min Rain = 0
KAI1 272044Z 19014KT 31/08 A298 RMK A01 T03130083  RH  024%=      5-min Rain = 0
KAI1 272045Z 19016G22KT 31/09 A298 RMK A01 T03130087  RH  025%=      5-min Rain = 0
KAI1 272046Z 21017KT 31/09 A298 RMK A01 T03130086  RH  024%=      5-min Rain = 0
KAI1 272047Z 21016KT 31/08 A298 RMK A01 T03140083  RH  024%=      5-min Rain = 0
KAI1 272048Z 20016KT 31/07 A298 RMK A01 T03140073  RH  022%=      5-min Rain = 0
KAI1 272049Z 21013KT 31/09 A298 RMK A01 T03140089  RH  025%=      5-min Rain = 0
KAI1 272050Z 20014KT 32/09 A298 RMK A01 T03150086  RH  024%=      5-min Rain = 0
KAI1 272051Z 20016KT 32/08 A298 RMK A01 T03160083  RH  024%=      5-min Rain = 0
KAI1 272052Z 18016KT 32/09 A298 RMK A01 T03150091  RH  025%=      5-min Rain = 0
KAI1 272053Z 19016KT 31/09 A298 RMK A01 T03140093  RH  025%=      5-min Rain = 0
KAI1 272054Z 18019KT 31/09 A2979 RMK A01 T03140093  RH  025%=      5-min Rain = 0
KAI1 272055Z 18020KT 31/10 A2979 RMK A01 T03140097  RH  026%=      5-min Rain = 0
KAI1 272056Z 19018KT 31/11 A2979 RMK A01 T03130105  RH  028%=      5-min Rain = 0
KAI1 272057Z 20020G25KT 31/10 A2979 RMK A01 T03140099  RH  027%=      5-min Rain = 0
KAI1 272058Z 19019KT 31/08 A2979 RMK A01 T03140078  RH  023%=      5-min Rain = 0
KAI1 272059Z 18017KT 31/09 A2979 RMK A01 T03130090  RH  025%=      5-min Rain = 0
KAI1 272100Z 17018KT 31/10 A2979 RMK A01 T03140097  RH  026%=      5-min Rain = 0
KAI1 272101Z 18016KT 31/09 A2979 RMK A01 T03140087  RH  024%=      5-min Rain = 0
KAI1 272102Z 19017KT 31/09 A2979 RMK A01 T03140090  RH  025%=      5-min Rain = 0
KAI1 272103Z 18014KT 31/10 A2979 RMK A01 T03130099  RH  027%=      5-min Rain = 0
KAI1 272104Z 19013KT 32/12 A2979 RMK A01 T03150119  RH  030%=      5-min Rain = 0
KAI1 272105Z 19014KT 32/10 A2979 RMK A01 T03160104  RH  027%=      5-min Rain = 0
KAI1 272106Z 19014G21KT 32/10 A2979 RMK A01 T03160102  RH  027%=      5-min Rain = 0
KAI1 272107Z 18018KT 32/10 A2979 RMK A01 T03160096  RH  026%=      5-min Rain = 0
KAI1 272108Z 20015KT 32/09 A2979 RMK A01 T03160088  RH  024%=      5-min Rain = 0
KAI1 272109Z 20016KT 32/10 A2978 RMK A01 T03160098  RH  026%=      5-min Rain = 0
KAI1 272110Z 20018KT 32/09 A2978 RMK A01 T03160087  RH  024%=      5-min Rain = 0
KAI1 272111Z 21018KT 32/09 A2978 RMK A01 T03160089  RH  025%=      5-min Rain = 0
KAI1 272112Z 19018KT 32/09 A2978 RMK A01 T03150093  RH  025%=      5-min Rain = 0
KAI1 272113Z 19020KT 32/10 A2978 RMK A01 T03160101  RH  027%=      5-min Rain = 0
KAI1 272114Z 18018KT 32/09 A2978 RMK A01 T03150094  RH  025%=      5-min Rain = 0
KAI1 272115Z 18017KT 32/10 A2978 RMK A01 T03150095  RH  026%=      5-min Rain = 0
KAI1 272116Z 19017KT 31/10 A2978 RMK A01 T03140101  RH  027%=      5-min Rain = 0
KAI1 272117Z 20019KT 31/10 A2978 RMK A01 T03140098  RH  026%=      5-min Rain = 0
KAI1 272118Z 19016KT 31/09 A2978 RMK A01 T03140090  RH  025%=      5-min Rain = 0
KAI1 272119Z 18014KT 32/10 A2978 RMK A01 T03150102  RH  027%=      5-min Rain = 0
KAI1 272120Z 19015KT 32/11 A2978 RMK A01 T03150110  RH  028%=      5-min Rain = 0
KAI1 272121Z 19014KT 32/11 A2978 RMK A01 T03160110  RH  028%=      5-min Rain = 0
KAI1 272122Z 19013KT 32/11 A2978 RMK A01 T03160105  RH  027%=      5-min Rain = 0
KAI1 272123Z 18016KT 32/11 A2978 RMK A01 T03160110  RH  028%=      5-min Rain = 0
KAI1 272124Z 18014KT 32/09 A2978 RMK A01 T03160092  RH  025%=      5-min Rain = 0
KAI1 272125Z 18017KT 32/11 A2978 RMK A01 T03160105  RH  027%=      5-min Rain = 0
KAI1 272126Z 18018KT 32/10 A2977 RMK A01 T03160102  RH  027%=      5-min Rain = 0
KAI1 272127Z 18016KT 32/11 A2977 RMK A01 T03160105  RH  027%=      5-min Rain = 0
KAI1 272128Z 17017KT 32/12 A2977 RMK A01 T03160119  RH  030%=      5-min Rain = 0
KAI1 272129Z 16019KT 32/11 A2977 RMK A01 T03160110  RH  028%=      5-min Rain = 0
KAI1 272130Z 16015KT 32/10 A2977 RMK A01 T03150104  RH  027%=      5-min Rain = 0
KAI1 272131Z 16014KT 31/12 A2977 RMK A01 T03140123  RH  031%=      5-min Rain = 0
KAI1 272132Z 17017G22KT 31/11 A2977 RMK A01 T03140114  RH  029%=      5-min Rain = 0
KAI1 272133Z 17018KT 31/11 A2977 RMK A01 T03140113  RH  029%=      5-min Rain = 0
KAI1 272134Z 17018KT 32/10 A2977 RMK A01 T03160100  RH  026%=      5-min Rain = 0
KAI1 272135Z 18022KT 32/10 A2977 RMK A01 T03170102  RH  027%=      5-min Rain = 0
KAI1 272136Z 19022KT 32/09 A2976 RMK A01 T03170091  RH  025%=      5-min Rain = 0
KAI1 272137Z 20020KT 32/09 A2976 RMK A01 T03160089  RH  024%=      5-min Rain = 0
KAI1 272138Z 19019KT 32/09 A2976 RMK A01 T03150091  RH  025%=      5-min Rain = 0
KAI1 272139Z 19020KT 32/08 A2976 RMK A01 T03150082  RH  024%=      5-min Rain = 0
KAI1 272140Z 18017KT 32/09 A2976 RMK A01 T03150091  RH  025%=      5-min Rain = 0
KAI1 272141Z 18017KT 32/10 A2976 RMK A01 T03150097  RH  026%=      5-min Rain = 0
KAI1 272142Z 18015KT 32/10 A2976 RMK A01 T03160101  RH  027%=      5-min Rain = 0
KAI1 272143Z 18017KT 32/10 A2976 RMK A01 T03160102  RH  027%=      5-min Rain = 0
KAI1 272144Z 19016KT 32/09 A2976 RMK A01 T03160094  RH  025%=      5-min Rain = 0
KAI1 272145Z 18017KT 32/10 A2976 RMK A01 T03160095  RH  026%=      5-min Rain = 0
KAI1 272146Z 18019G25KT 32/10 A2976 RMK A01 T03160100  RH  026%=      5-min Rain = 0
KAI1 272147Z 19015KT 32/09 A2976 RMK A01 T03160094  RH  025%=      5-min Rain = 0
KAI1 272148Z 18016KT 32/10 A2976 RMK A01 T03170102  RH  027%=      5-min Rain = 0
KAI1 272149Z 18017KT 32/11 A2976 RMK A01 T03180110  RH  028%=      5-min Rain = 0
KAI1 272150Z 18018G23KT 32/11 A2976 RMK A01 T03180113  RH  029%=      5-min Rain = 0
KAI1 272151Z 18019KT 32/11 A2976 RMK A01 T03180105  RH  027%=      5-min Rain = 0
KAI1 272152Z 18020KT 32/10 A2976 RMK A01 T03170101  RH  027%=      5-min Rain = 0
KAI1 272153Z 18017KT 32/10 A2976 RMK A01 T03160098  RH  026%=      5-min Rain = 0
KAI1 272154Z 18018KT 32/10 A2976 RMK A01 T03160102  RH  027%=      5-min Rain = 0
KAI1 272155Z 18019KT 32/11 A2976 RMK A01 T03160107  RH  028%=      5-min Rain = 0
KAI1 272156Z 17022KT 32/10 A2976 RMK A01 T03160100  RH  026%=      5-min Rain = 0
KAI1 272157Z 18021KT 32/10 A2975 RMK A01 T03160099  RH  026%=      5-min Rain = 0
KAI1 272158Z 18020KT 32/11 A2975 RMK A01 T03150105  RH  027%=      5-min Rain = 0
KAI1 272159Z 17021KT 32/11 A2976 RMK A01 T03150108  RH  028%=      5-min Rain = 0
KAI1 272200Z 17018KT 32/11 A2976 RMK A01 T03150105  RH  027%=      5-min Rain = 0
KAI1 272201Z 17020KT 32/11 A2976 RMK A01 T03150113  RH  029%=      5-min Rain = 0
KAI1 272202Z 18019KT 32/10 A2976 RMK A01 T03150101  RH  027%=      5-min Rain = 0
KAI1 272203Z 17018KT 32/11 A2976 RMK A01 T03150114  RH  029%=      5-min Rain = 0
KAI1 272204Z 18020KT 32/11 A2975 RMK A01 T03150106  RH  028%=      5-min Rain = 0
KAI1 272205Z 19016KT 32/11 A2975 RMK A01 T03150114  RH  029%=      5-min Rain = 0
KAI1 272206Z 18017KT 32/11 A2975 RMK A01 T03150110  RH  028%=      5-min Rain = 0
KAI1 272207Z 18015KT 32/13 A2975 RMK A01 T03150128  RH  032%=      5-min Rain = 0
KAI1 272208Z 17017KT 32/15 A2975 RMK A01 T03150153  RH  038%=      5-min Rain = 0
KAI1 272209Z 16022KT 31/16 A2975 RMK A01 T03140158  RH  039%=      5-min Rain = 0
KAI1 272210Z 15020KT 31/16 A2975 RMK A01 T03110164  RH  041%=      5-min Rain = 0
KAI1 272211Z 15019KT 31/17 A2975 RMK A01 T03090169  RH  043%=      5-min Rain = 0
KAI1 272212Z 16021KT 31/17 A2975 RMK A01 T03080173  RH  044%=      5-min Rain = 0
KAI1 272213Z 16020KT 31/17 A2975 RMK A01 T03070171  RH  044%=      5-min Rain = 0
KAI1 272214Z 16021KT 31/17 A2975 RMK A01 T03060167  RH  043%=      5-min Rain = 0
KAI1 272215Z 16021KT 31/17 A2975 RMK A01 T03050165  RH  043%=      5-min Rain = 0
KAI1 272216Z 15022KT 30/17 A2975 RMK A01 T03040169  RH  044%=      5-min Rain = 0
KAI1 272217Z 16022KT 30/17 A2975 RMK A01 T03040168  RH  044%=      5-min Rain = 0
KAI1 272218Z 16022KT 30/17 A2975 RMK A01 T03030168  RH  044%=      5-min Rain = 0
KAI1 272219Z 16021KT 30/17 A2975 RMK A01 T03030172  RH  045%=      5-min Rain = 0
KAI1 272220Z 16020KT 30/17 A2975 RMK A01 T03030169  RH  044%=      5-min Rain = 0
KAI1 272221Z 16019KT 30/17 A2975 RMK A01 T03030168  RH  044%=      5-min Rain = 0
KAI1 272222Z 15018KT 30/17 A2974 RMK A01 T03040173  RH  045%=      5-min Rain = 0
KAI1 272223Z 16017KT 30/17 A2975 RMK A01 T03040174  RH  046%=      5-min Rain = 0
KAI1 272224Z 15017KT 31/18 A2975 RMK A01 T03050181  RH  047%=      5-min Rain = 0
KAI1 272225Z 16023KT 31/17 A2974 RMK A01 T03050174  RH  045%=      5-min Rain = 0
KAI1 272226Z 16021KT 30/17 A2974 RMK A01 T03030171  RH  045%=      5-min Rain = 0
KAI1 272227Z 16020KT 30/17 A2974 RMK A01 T03020172  RH  046%=      5-min Rain = 0
KAI1 272228Z 16021G26KT 30/18 A2974 RMK A01 T03010176  RH  047%=      5-min Rain = 0
KAI1 272229Z 16022G27KT 30/17 A2974 RMK A01 T03010173  RH  046%=      5-min Rain = 0
KAI1 272230Z 16021G26KT 30/18 A2974 RMK A01 T03000176  RH  047%=      5-min Rain = 0
KAI1 272231Z 16021KT 30/17 A2974 RMK A01 T03000172  RH  046%=      5-min Rain = 0
KAI1 272232Z 16020KT 30/18 A2974 RMK A01 T03010175  RH  047%=      5-min Rain = 0
KAI1 272233Z 16023KT 30/17 A2974 RMK A01 T03020173  RH  046%=      5-min Rain = 0
KAI1 272234Z 16021KT 30/17 A2974 RMK A01 T03020172  RH  046%=      5-min Rain = 0
KAI1 272235Z 15021KT 30/17 A2974 RMK A01 T03020174  RH  046%=      5-min Rain = 0
KAI1 272236Z 15021KT 30/18 A2974 RMK A01 T03010176  RH  047%=      5-min Rain = 0
KAI1 272237Z 16021KT 30/18 A2974 RMK A01 T03000176  RH  047%=      5-min Rain = 0
KAI1 272238Z 16021KT 30/18 A2974 RMK A01 T03000175  RH  047%=      5-min Rain = 0
KAI1 272239Z 16021KT 30/17 A2974 RMK A01 T03000174  RH  047%=      5-min Rain = 0
KAI1 272240Z 16021G26KT 30/18 A2974 RMK A01 T03010177  RH  047%=      5-min Rain = 0
KAI1 272241Z 15023KT 30/17 A2974 RMK A01 T03010174  RH  046%=      5-min Rain = 0
KAI1 272242Z 15022KT 30/18 A2974 RMK A01 T03010175  RH  047%=      5-min Rain = 0
KAI1 272243Z 15021KT 30/18 A2974 RMK A01 T03010177  RH  047%=      5-min Rain = 0
KAI1 272244Z 16022KT 30/17 A2974 RMK A01 T03010174  RH  047%=      5-min Rain = 0
KAI1 272245Z 16023KT 30/17 A2974 RMK A01 T03000173  RH  046%=      5-min Rain = 0
KAI1 272246Z 16023KT 30/17 A2974 RMK A01 T03000172  RH  046%=      5-min Rain = 0
KAI1 272247Z 16024KT 30/17 A2974 RMK A01 T03000173  RH  046%=      5-min Rain = 0
KAI1 272248Z 15023KT 30/18 A2974 RMK A01 T03000175  RH  047%=      5-min Rain = 0
KAI1 272249Z 16022KT 30/18 A2974 RMK A01 T03000175  RH  047%=      5-min Rain = 0
KAI1 272250Z 15020KT 30/18 A2974 RMK A01 T03000176  RH  047%=      5-min Rain = 0
KAI1 272251Z 16021G26KT 30/18 A2974 RMK A01 T03000182  RH  049%=      5-min Rain = 0
KAI1 272252Z 16025KT 30/17 A2973 RMK A01 T03000171  RH  046%=      5-min Rain = 0
KAI1 272253Z 16024KT 30/17 A2973 RMK A01 T02990172  RH  047%=      5-min Rain = 0
KAI1 272254Z 16021KT 30/18 A2974 RMK A01 T02990177  RH  048%=      5-min Rain = 0
KAI1 272255Z 16021KT 30/17 A2973 RMK A01 T02990174  RH  047%=      5-min Rain = 0
KAI1 272256Z 16021G26KT 30/18 A2974 RMK A01 T02980178  RH  049%=      5-min Rain = 0
KAI1 272257Z 15025KT 30/18 A2973 RMK A01 T02980175  RH  047%=      5-min Rain = 0
KAI1 272258Z 15022KT 30/18 A2973 RMK A01 T02980175  RH  048%=      5-min Rain = 0
KAI1 272259Z 15022KT 30/18 A2973 RMK A01 T02970177  RH  049%=      5-min Rain = 0
KAI1 272300Z 15021KT 30/18 A2973 RMK A01 T02960180  RH  050%=      5-min Rain = 0
KAI1 272301Z 16023KT 30/18 A2973 RMK A01 T02960178  RH  049%=      5-min Rain = 0
KAI1 272302Z 16023KT 30/17 A2973 RMK A01 T02960174  RH  048%=      5-min Rain = 0
KAI1 272303Z 16024KT 30/17 A2973 RMK A01 T02970170  RH  047%=      5-min Rain = 0
KAI1 272304Z 16021KT 30/17 A2973 RMK A01 T02960171  RH  047%=      5-min Rain = 0
KAI1 272305Z 16021KT 30/17 A2973 RMK A01 T02960174  RH  048%=      5-min Rain = 0
KAI1 272306Z 16023KT 30/17 A2973 RMK A01 T02960173  RH  047%=      5-min Rain = 0
KAI1 272307Z 16024KT 30/17 A2973 RMK A01 T02960171  RH  047%=      5-min Rain = 0
KAI1 272308Z 16023KT 30/17 A2973 RMK A01 T02950170  RH  047%=      5-min Rain = 0
KAI1 272309Z 16022KT 29/17 A2973 RMK A01 T02940171  RH  048%=      5-min Rain = 0
KAI1 272310Z 16022KT 29/17 A2973 RMK A01 T02930173  RH  048%=      5-min Rain = 0
KAI1 272311Z 16019KT 29/18 A2973 RMK A01 T02930175  RH  049%=      5-min Rain = 0
KAI1 272312Z 16020KT 29/17 A2973 RMK A01 T02920174  RH  049%=      5-min Rain = 0
KAI1 272313Z 15021KT 29/17 A2973 RMK A01 T02910172  RH  049%=      5-min Rain = 0
KAI1 272314Z 16023KT 29/17 A2973 RMK A01 T02910171  RH  048%=      5-min Rain = 0
KAI1 272315Z 16021KT 29/17 A2973 RMK A01 T02910171  RH  049%=      5-min Rain = 0
KAI1 272316Z 16021KT 29/17 A2973 RMK A01 T02910171  RH  048%=      5-min Rain = 0
KAI1 272317Z 16021KT 29/17 A2973 RMK A01 T02930172  RH  048%=      5-min Rain = 0
KAI1 272318Z 15020KT 29/17 A2973 RMK A01 T02940174  RH  049%=      5-min Rain = 0
KAI1 272319Z 16023KT 29/17 A2973 RMK A01 T02940172  RH  048%=      5-min Rain = 0
KAI1 272320Z 16022KT 29/17 A2973 RMK A01 T02930167  RH  046%=      5-min Rain = 0
KAI1 272321Z 16021KT 29/17 A2973 RMK A01 T02930167  RH  047%=      5-min Rain = 0
KAI1 272322Z 16019KT 29/17 A2973 RMK A01 T02920170  RH  048%=      5-min Rain = 0
KAI1 272323Z 16019KT 29/17 A2973 RMK A01 T02910172  RH  049%=      5-min Rain = 0
KAI1 272324Z 15019KT 29/17 A2973 RMK A01 T02900167  RH  047%=      5-min Rain = 0
KAI1 272325Z 15018KT 29/17 A2973 RMK A01 T02900171  RH  049%=      5-min Rain = 0
KAI1 272326Z 15020KT 29/17 A2973 RMK A01 T02880170  RH  049%=      5-min Rain = 0
KAI1 272327Z 16021KT 29/17 A2973 RMK A01 T02870167  RH  048%=      5-min Rain = 0
KAI1 272328Z 16022KT 29/16 A2973 RMK A01 T02860164  RH  047%=      5-min Rain = 0
KAI1 272329Z 16020KT 29/17 A2973 RMK A01 T02860167  RH  048%=      5-min Rain = 0
KAI1 272330Z 16020KT 29/17 A2973 RMK A01 T02860170  RH  049%=      5-min Rain = 0
KAI1 272331Z 16019KT 29/17 A2973 RMK A01 T02850169  RH  050%=      5-min Rain = 0
KAI1 272332Z 16016KT 28/17 A2973 RMK A01 T02840172  RH  051%=      5-min Rain = 0
KAI1 272333Z 16016KT 28/17 A2973 RMK A01 T02840174  RH  051%=      5-min Rain = 0
KAI1 272334Z 16017KT 29/17 A2973 RMK A01 T02850173  RH  051%=      5-min Rain = 0
KAI1 272335Z 16019G24KT 29/17 A2973 RMK A01 T02860174  RH  051%=      5-min Rain = 0
KAI1 272336Z 16023KT 29/17 A2973 RMK A01 T02880167  RH  048%=      5-min Rain = 0
KAI1 272337Z 16019KT 29/17 A2973 RMK A01 T02890169  RH  048%=      5-min Rain = 0
KAI1 272338Z 16018KT 29/17 A2973 RMK A01 T02900171  RH  049%=      5-min Rain = 0
KAI1 272339Z 16017KT 29/17 A2973 RMK A01 T02900174  RH  050%=      5-min Rain = 0
KAI1 272340Z 16019KT 29/18 A2973 RMK A01 T02900175  RH  050%=      5-min Rain = 0
KAI1 272341Z 16022KT 29/17 A2973 RMK A01 T02900168  RH  048%=      5-min Rain = 0
KAI1 272342Z 16023KT 29/16 A2973 RMK A01 T02900163  RH  046%=      5-min Rain = 0
KAI1 272343Z 16019KT 29/17 A2973 RMK A01 T02910168  RH  047%=      5-min Rain = 0
KAI1 272344Z 16019KT 29/17 A2973 RMK A01 T02910172  RH  049%=      5-min Rain = 0
KAI1 272345Z 16018KT 29/17 A2973 RMK A01 T02910170  RH  048%=      5-min Rain = 0
KAI1 272346Z 16017KT 29/17 A2973 RMK A01 T02910171  RH  048%=      5-min Rain = 0
KAI1 272347Z 16019KT 29/17 A2973 RMK A01 T02910172  RH  049%=      5-min Rain = 0
KAI1 272348Z 16018KT 29/17 A2973 RMK A01 T02910170  RH  048%=      5-min Rain = 0
KAI1 272349Z 16020KT 29/17 A2973 RMK A01 T02910169  RH  048%=      5-min Rain = 0
KAI1 272350Z 16018G23KT 29/17 A2973 RMK A01 T02910170  RH  048%=      5-min Rain = 0
KAI1 272351Z 16022KT 29/16 A2973 RMK A01 T02900164  RH  046%=      5-min Rain = 0
KAI1 272352Z 16021KT 29/17 A2973 RMK A01 T02900167  RH  047%=      5-min Rain = 0
KAI1 272353Z 16021KT 29/17 A2973 RMK A01 T02900169  RH  048%=      5-min Rain = 0
KAI1 272354Z 16022KT 29/17 A2973 RMK A01 T02900166  RH  047%=      5-min Rain = 0
KAI1 272355Z 16024KT 29/16 A2972 RMK A01 T02900161  RH  046%=      5-min Rain = 0
KAI1 272356Z 16023KT 29/16 A2973 RMK A01 T02890163  RH  046%=      5-min Rain = 0
KAI1 272357Z 16024KT 29/16 A2972 RMK A01 T02890161  RH  046%=      5-min Rain = 0
KAI1 272358Z 16021KT 29/16 A2972 RMK A01 T02890162  RH  046%=      5-min Rain = 0
KAI1 272359Z 16019KT 29/17 A2972 RMK A01 T02880166  RH  048%=      5-min Rain = 0
KAI1 280000Z 16022KT 29/16 A2972 RMK A01 T02880163  RH  047%=      5-min Rain = 0
KAI1 280001Z 15020KT 29/16 A2972 RMK A01 T02880164  RH  047%=      5-min Rain = 0
KAI1 280002Z 15020KT 29/17 A2972 RMK A01 T02880167  RH  048%=      5-min Rain = 0
KAI1 280003Z 16020KT 29/17 A2972 RMK A01 T02870165  RH  048%=      5-min Rain = 0
KAI1 280004Z 16022G28KT 29/16 A2972 RMK A01 T02870161  RH  046%=      5-min Rain = 0
KAI1 280005Z 16022KT 29/16 A2972 RMK A01 T02870162  RH  047%=      5-min Rain = 0
KAI1 280006Z 16019KT 29/16 A2972 RMK A01 T02870162  RH  047%=      5-min Rain = 0
KAI1 280007Z 16020KT 29/17 A2972 RMK A01 T02870165  RH  048%=      5-min Rain = 0
KAI1 280008Z 16022KT 29/16 A2972 RMK A01 T02860161  RH  047%=      5-min Rain = 0
KAI1 280009Z 16021KT 29/16 A2972 RMK A01 T02860161  RH  047%=      5-min Rain = 0
KAI1 280010Z 16020KT 29/16 A2972 RMK A01 T02860163  RH  047%=      5-min Rain = 0
KAI1 280011Z 16020KT 29/16 A2972 RMK A01 T02850164  RH  048%=      5-min Rain = 0
KAI1 280012Z 16021KT 29/16 A2972 RMK A01 T02850163  RH  048%=      5-min Rain = 0
KAI1 280013Z 16021KT 28/16 A2972 RMK A01 T02840163  RH  048%=      5-min Rain = 0
KAI1 280014Z 16019KT 28/16 A2972 RMK A01 T02840163  RH  048%=      5-min Rain = 0
KAI1 280015Z 16020KT 28/17 A2972 RMK A01 T02840166  RH  049%=      5-min Rain = 0
KAI1 280016Z 16021KT 28/16 A2972 RMK A01 T02830163  RH  048%=      5-min Rain = 0
KAI1 280017Z 16021KT 28/16 A2972 RMK A01 T02840161  RH  047%=      5-min Rain = 0
KAI1 280018Z 16020G25KT 28/17 A2972 RMK A01 T02840165  RH  048%=      5-min Rain = 0
KAI1 280019Z 16022KT 28/16 A2972 RMK A01 T02840160  RH  047%=      5-min Rain = 0
KAI1 280020Z 16018G23KT 28/16 A2972 RMK A01 T02840163  RH  048%=      5-min Rain = 0
KAI1 280021Z 16020KT 28/16 A2972 RMK A01 T02830163  RH  048%=      5-min Rain = 0
KAI1 280022Z 16020KT 28/16 A2972 RMK A01 T02820164  RH  049%=      5-min Rain = 0
KAI1 280023Z 15018KT 28/17 A2972 RMK A01 T02820166  RH  049%=      5-min Rain = 0
KAI1 280024Z 15018G23KT 28/17 A2972 RMK A01 T02820167  RH  050%=      5-min Rain = 0
KAI1 280025Z 16022KT 28/17 A2972 RMK A01 T02810165  RH  049%=      5-min Rain = 0
KAI1 280026Z 15019KT 28/17 A2972 RMK A01 T02810166  RH  050%=      5-min Rain = 0
KAI1 280027Z 16021KT 28/17 A2972 RMK A01 T02810166  RH  050%=      5-min Rain = 0
KAI1 280028Z 16020KT 28/17 A2972 RMK A01 T02810166  RH  050%=      5-min Rain = 0
KAI1 280029Z 16019KT 28/17 A2972 RMK A01 T02800168  RH  050%=      5-min Rain = 0
KAI1 280030Z 15019KT 28/17 A2972 RMK A01 T02800166  RH  050%=      5-min Rain = 0
KAI1 280031Z 16019KT 28/17 A2972 RMK A01 T02800168  RH  051%=      5-min Rain = 0
KAI1 280032Z 16019KT 28/17 A2972 RMK A01 T02790167  RH  050%=      5-min Rain = 0
KAI1 280033Z 16019KT 28/17 A2972 RMK A01 T02790165  RH  050%=      5-min Rain = 0
KAI1 280034Z 16019KT 28/17 A2972 RMK A01 T02800165  RH  050%=      5-min Rain = 0
KAI1 280035Z 16019KT 28/17 A2972 RMK A01 T02790165  RH  050%=      5-min Rain = 0
KAI1 280036Z 16017KT 28/16 A2972 RMK A01 T02790164  RH  050%=      5-min Rain = 0
KAI1 280037Z 16018KT 28/16 A2972 RMK A01 T02790164  RH  050%=      5-min Rain = 0
KAI1 280038Z 16020KT 28/16 A2972 RMK A01 T02780161  RH  049%=      5-min Rain = 0
KAI1 280039Z 16021KT 28/16 A2972 RMK A01 T02790160  RH  048%=      5-min Rain = 0
KAI1 280040Z 16018KT 28/16 A2972 RMK A01 T02780160  RH  048%=      5-min Rain = 0
KAI1 280041Z 16018KT 28/16 A2972 RMK A01 T02780160  RH  049%=      5-min Rain = 0
KAI1 280042Z 16020KT 28/16 A2972 RMK A01 T02770160  RH  049%=      5-min Rain = 0
KAI1 280043Z 16021KT 28/16 A2972 RMK A01 T02770158  RH  048%=      5-min Rain = 0
KAI1 280044Z 16020KT 28/16 A2972 RMK A01 T02770158  RH  048%=      5-min Rain = 0
KAI1 280045Z 16019KT 28/16 A2972 RMK A01 T02760160  RH  049%=      5-min Rain = 0
KAI1 280046Z 16018KT 28/16 A2972 RMK A01 T02760160  RH  049%=      5-min Rain = 0
KAI1 280047Z 16017KT 28/16 A2972 RMK A01 T02750162  RH  050%=      5-min Rain = 0
KAI1 280048Z 16019KT 27/16 A2972 RMK A01 T02740161  RH  050%=      5-min Rain = 0
KAI1 280049Z 16018KT 27/16 A2972 RMK A01 T02730163  RH  051%=      5-min Rain = 0
KAI1 280050Z 16017KT 27/16 A2972 RMK A01 T02730162  RH  051%=      5-min Rain = 0
KAI1 280051Z 16017KT 27/16 A2972 RMK A01 T02720163  RH  051%=      5-min Rain = 0
KAI1 280052Z 15018KT 27/17 A2972 RMK A01 T02720165  RH  052%=      5-min Rain = 0
KAI1 280053Z 15017KT 27/16 A2972 RMK A01 T02720164  RH  052%=      5-min Rain = 0
KAI1 280054Z 15016KT 27/17 A2972 RMK A01 T02710166  RH  052%=      5-min Rain = 0
KAI1 280055Z 15015KT 27/17 A2972 RMK A01 T02700168  RH  053%=      5-min Rain = 0
KAI1 280056Z 15015KT 27/17 A2972 RMK A01 T02690169  RH  054%=      5-min Rain = 0
KAI1 280057Z 15014KT 27/17 A2972 RMK A01 T02680169  RH  055%=      5-min Rain = 0
KAI1 280058Z 15014KT 27/17 A2972 RMK A01 T02670172  RH  056%=      5-min Rain = 0
KAI1 280059Z 15015KT 27/17 A2972 RMK A01 T02660173  RH  057%=      5-min Rain = 0
KAI1 280100Z 15016KT 27/17 A2972 RMK A01 T02650172  RH  057%=      5-min Rain = 0
KAI1 280101Z 15017KT 27/17 A2972 RMK A01 T02650173  RH  057%=      5-min Rain = 0
KAI1 280102Z 15016KT 27/17 A2972 RMK A01 T02650173  RH  057%=      5-min Rain = 0
KAI1 280103Z 15016KT 27/17 A2972 RMK A01 T02650174  RH  058%=      5-min Rain = 0
KAI1 280104Z 15016KT 26/18 A2972 RMK A01 T02640175  RH  058%=      5-min Rain = 0
KAI1 280105Z 15015KT 26/18 A2972 RMK A01 T02640176  RH  058%=      5-min Rain = 0
KAI1 280106Z 15015KT 26/18 A2972 RMK A01 T02640177  RH  059%=      5-min Rain = 0
KAI1 280107Z 15015KT 26/18 A2972 RMK A01 T02630177  RH  059%=      5-min Rain = 0
KAI1 280108Z 15015KT 26/18 A2972 RMK A01 T02630177  RH  059%=      5-min Rain = 0
KAI1 280109Z 15017KT 26/18 A2972 RMK A01 T02630178  RH  059%=      5-min Rain = 0
KAI1 280110Z 15016KT 26/18 A2972 RMK A01 T02630177  RH  059%=      5-min Rain = 0
KAI1 280111Z 15016KT 26/18 A2972 RMK A01 T02630178  RH  060%=      5-min Rain = 0
KAI1 280112Z 15015KT 26/18 A2972 RMK A01 T02620178  RH  060%=      5-min Rain = 0
KAI1 280113Z 15015KT 26/18 A2972 RMK A01 T02620179  RH  060%=      5-min Rain = 0
KAI1 280114Z 15016KT 26/18 A2972 RMK A01 T02610180  RH  061%=      5-min Rain = 0
KAI1 280115Z 15016KT 26/18 A2972 RMK A01 T02600180  RH  061%=      5-min Rain = 0
KAI1 280116Z 15015KT 26/18 A2972 RMK A01 T02600181  RH  062%=      5-min Rain = 0
KAI1 280117Z 15014KT 26/18 A2972 RMK A01 T02590182  RH  062%=      5-min Rain = 0
KAI1 280118Z 15015KT 26/18 A2972 RMK A01 T02580182  RH  063%=      5-min Rain = 0
KAI1 280119Z 15015KT 26/18 A2972 RMK A01 T02580182  RH  063%=      5-min Rain = 0
KAI1 280120Z 15016KT 26/18 A2972 RMK A01 T02570182  RH  063%=      5-min Rain = 0
KAI1 280121Z 15015KT 26/18 A2972 RMK A01 T02570183  RH  064%=      5-min Rain = 0
KAI1 280122Z 15016KT 26/18 A2972 RMK A01 T02560183  RH  064%=      5-min Rain = 0
KAI1 280123Z 15016KT 26/18 A2972 RMK A01 T02560183  RH  064%=      5-min Rain = 0
KAI1 280124Z 15014KT 26/18 A2972 RMK A01 T02550183  RH  064%=      5-min Rain = 0
KAI1 280125Z 15015KT 26/19 A2972 RMK A01 T02550185  RH  065%=      5-min Rain = 0
KAI1 280126Z 15015KT 25/18 A2972 RMK A01 T02540184  RH  065%=      5-min Rain = 0
KAI1 280127Z 15015KT 25/19 A2972 RMK A01 T02540185  RH  066%=      5-min Rain = 0
KAI1 280128Z 15016KT 25/19 A2972 RMK A01 T02530186  RH  066%=      5-min Rain = 0
KAI1 280129Z 15015KT 25/19 A2972 RMK A01 T02530186  RH  066%=      5-min Rain = 0
KAI1 280130Z 15015KT 25/19 A2972 RMK A01 T02520186  RH  067%=      5-min Rain = 0
KAI1 280131Z 15016KT 25/19 A2972 RMK A01 T02520186  RH  067%=      5-min Rain = 0
KAI1 280132Z 15014KT 25/19 A2972 RMK A01 T02520187  RH  067%=      5-min Rain = 0
KAI1 280133Z 15015KT 25/19 A2972 RMK A01 T02520188  RH  068%=      5-min Rain = 0
KAI1 280134Z 15016KT 25/19 A2972 RMK A01 T02510187  RH  068%=      5-min Rain = 0
KAI1 280135Z 15015KT 25/19 A2972 RMK A01 T02510187  RH  068%=      5-min Rain = 0
KAI1 280136Z 15015KT 25/19 A2972 RMK A01 T02510188  RH  068%=      5-min Rain = 0
KAI1 280137Z 15015KT 25/19 A2972 RMK A01 T02510188  RH  068%=      5-min Rain = 0
KAI1 280138Z 15016KT 25/19 A2972 RMK A01 T02510189  RH  068%=      5-min Rain = 0
KAI1 280139Z 15016KT 25/19 A2972 RMK A01 T02500189  RH  069%=      5-min Rain = 0
KAI1 280140Z 15015KT 25/19 A2972 RMK A01 T02500189  RH  069%=      5-min Rain = 0
KAI1 280141Z 15016KT 25/19 A2972 RMK A01 T02500189  RH  069%=      5-min Rain = 0
KAI1 280142Z 15015KT 25/19 A2972 RMK A01 T02500190  RH  069%=      5-min Rain = 0
KAI1 280143Z 15015KT 25/19 A2972 RMK A01 T02490190  RH  070%=      5-min Rain = 0
KAI1 280144Z 15015KT 25/19 A2972 RMK A01 T02490191  RH  070%=      5-min Rain = 0
KAI1 280145Z 15014KT 25/19 A2972 RMK A01 T02480191  RH  071%=      5-min Rain = 0
KAI1 280146Z 15016KT 25/19 A2972 RMK A01 T02470191  RH  071%=      5-min Rain = 0
KAI1 280147Z 15015KT 25/19 A2972 RMK A01 T02470191  RH  071%=      5-min Rain = 0
KAI1 280148Z 15015KT 25/19 A2972 RMK A01 T02470191  RH  071%=      5-min Rain = 0
KAI1 280149Z 15016KT 25/19 A2972 RMK A01 T02470192  RH  071%=      5-min Rain = 0
KAI1 280150Z 15016KT 25/19 A2972 RMK A01 T02460191  RH  071%=      5-min Rain = 0
KAI1 280151Z 15015KT 25/19 A2972 RMK A01 T02460191  RH  071%=      5-min Rain = 0
KAI1 280152Z 15017KT 25/19 A2972 RMK A01 T02460193  RH  072%=      5-min Rain = 0
KAI1 280153Z 15016KT 25/19 A2972 RMK A01 T02460193  RH  072%=      5-min Rain = 0
KAI1 280154Z 15016KT 25/19 A2972 RMK A01 T02450194  RH  073%=      5-min Rain = 0
KAI1 280155Z 15015KT 25/19 A2972 RMK A01 T02450194  RH  073%=      5-min Rain = 0
KAI1 280156Z 15015KT 24/20 A2972 RMK A01 T02440195  RH  074%=      5-min Rain = 0
KAI1 280157Z 15017KT 24/19 A2972 RMK A01 T02430194  RH  074%=      5-min Rain = 0
KAI1 280158Z 15018KT 24/19 A2972 RMK A01 T02430194  RH  074%=      5-min Rain = 0
KAI1 280159Z 15016KT 24/19 A2972 RMK A01 T02430194  RH  074%=      5-min Rain = 0
KAI1 280200Z 15017KT 24/20 A2972 RMK A01 T02430195  RH  074%=      5-min Rain = 0
KAI1 280201Z 15016KT 24/20 A2972 RMK A01 T02440195  RH  074%=      5-min Rain = 0
KAI1 280202Z 15017KT 24/20 A2972 RMK A01 T02430195  RH  074%=      5-min Rain = 0
KAI1 280203Z 15016KT 24/20 A2972 RMK A01 T02440195  RH  074%=      5-min Rain = 0
KAI1 280204Z 15016KT 24/20 A2972 RMK A01 T02440195  RH  074%=      5-min Rain = 0
KAI1 280205Z 15017KT 24/20 A2972 RMK A01 T02440195  RH  074%=      5-min Rain = 0
KAI1 280206Z 15017KT 24/20 A2972 RMK A01 T02430195  RH  074%=      5-min Rain = 0
KAI1 280207Z 15016KT 24/20 A2972 RMK A01 T02440196  RH  075%=      5-min Rain = 0
KAI1 280208Z 15018KT 24/20 A2972 RMK A01 T02440196  RH  075%=      5-min Rain = 0
KAI1 280209Z 15018KT 24/20 A2972 RMK A01 T02430196  RH  075%=      5-min Rain = 0
KAI1 280210Z 15017KT 24/20 A2972 RMK A01 T02430196  RH  075%=      5-min Rain = 0
KAI1 280211Z 15017KT 24/20 A2972 RMK A01 T02430196  RH  075%=      5-min Rain = 0
KAI1 280212Z 15019KT 24/20 A2972 RMK A01 T02430196  RH  075%=      5-min Rain = 0
KAI1 280213Z 15018KT 24/20 A2972 RMK A01 T02430196  RH  075%=      5-min Rain = 0
KAI1 280214Z 15017KT 24/20 A2972 RMK A01 T02430197  RH  075%=      5-min Rain = 0
KAI1 280215Z 15018KT 24/20 A2972 RMK A01 T02420196  RH  076%=      5-min Rain = 0
KAI1 280216Z 15019KT 24/20 A2972 RMK A01 T02420196  RH  076%=      5-min Rain = 0
KAI1 280217Z 15019KT 24/20 A2972 RMK A01 T02420196  RH  076%=      5-min Rain = 0
KAI1 280218Z 15018KT 24/20 A2972 RMK A01 T02420197  RH  076%=      5-min Rain = 0
KAI1 280219Z 15019KT 24/20 A2972 RMK A01 T02420196  RH  076%=      5-min Rain = 0
KAI1 280220Z 15019KT 24/20 A2972 RMK A01 T02420196  RH  076%=      5-min Rain = 0
KAI1 280221Z 15019KT 24/20 A2972 RMK A01 T02420196  RH  076%=      5-min Rain = 0
KAI1 280222Z 15017KT 24/20 A2972 RMK A01 T02420197  RH  076%=      5-min Rain = 0
KAI1 280223Z 15018KT 24/20 A2972 RMK A01 T02400197  RH  076%=      5-min Rain = 0
KAI1 280224Z 15018KT 24/20 A2972 RMK A01 T02400197  RH  077%=      5-min Rain = 0
KAI1 280225Z 15018KT 24/20 A2972 RMK A01 T02400197  RH  077%=      5-min Rain = 0
KAI1 280226Z 15017KT 24/20 A2972 RMK A01 T02400197  RH  077%=      5-min Rain = 0
KAI1 280227Z 15017KT 24/20 A2972 RMK A01 T02390197  RH  077%=      5-min Rain = 0
KAI1 280228Z 15018KT 24/20 A2972 RMK A01 T02390197  RH  077%=      5-min Rain = 0
KAI1 280229Z 15016KT 24/20 A2972 RMK A01 T02390197  RH  077%=      5-min Rain = 0
KAI1 280230Z 15017KT 24/20 A2972 RMK A01 T02380197  RH  078%=      5-min Rain = 0
KAI1 280231Z 15017KT 24/20 A2972 RMK A01 T02380197  RH  078%=      5-min Rain = 0
KAI1 280232Z 15017KT 24/20 A2972 RMK A01 T02380197  RH  078%=      5-min Rain = 0
KAI1 280233Z 15017KT 24/20 A2972 RMK A01 T02380197  RH  078%=      5-min Rain = 0
KAI1 280234Z 15018KT 24/20 A2972 RMK A01 T02380197  RH  078%=      5-min Rain = 0
KAI1 280235Z 15017KT 24/20 A2972 RMK A01 T02380197  RH  078%=      5-min Rain = 0
KAI1 280236Z 15017KT 24/20 A2972 RMK A01 T02380197  RH  078%=      5-min Rain = 0
KAI1 280237Z 15015KT 24/20 A2972 RMK A01 T02380197  RH  078%=      5-min Rain = 0
KAI1 280238Z 15016KT 24/20 A2972 RMK A01 T02380197  RH  078%=      5-min Rain = 0
KAI1 280239Z 15017KT 24/20 A2972 RMK A01 T02370197  RH  078%=      5-min Rain = 0
KAI1 280240Z 15016KT 24/20 A2972 RMK A01 T02370197  RH  079%=      5-min Rain = 0
KAI1 280241Z 15017KT 24/20 A2972 RMK A01 T02370197  RH  079%=      5-min Rain = 0
KAI1 280242Z 15017KT 24/20 A2972 RMK A01 T02370198  RH  079%=      5-min Rain = 0
KAI1 280243Z 15017KT 24/20 A2972 RMK A01 T02360197  RH  079%=      5-min Rain = 0
KAI1 280244Z 15017KT 24/20 A2972 RMK A01 T02360198  RH  079%=      5-min Rain = 0
KAI1 280245Z 15016KT 24/20 A2972 RMK A01 T02360198  RH  079%=      5-min Rain = 0
KAI1 280246Z 15017KT 24/20 A2972 RMK A01 T02360198  RH  079%=      5-min Rain = 0
KAI1 280247Z 15017KT 24/20 A2972 RMK A01 T02360198  RH  079%=      5-min Rain = 0
KAI1 280248Z 16017KT 24/20 A2972 RMK A01 T02350198  RH  079%=      5-min Rain = 0
KAI1 280249Z 15017KT 24/20 A2972 RMK A01 T02350198  RH  080%=      5-min Rain = 0
KAI1 280250Z 15018KT 24/20 A2972 RMK A01 T02350198  RH  080%=      5-min Rain = 0
KAI1 280251Z 16016KT 24/20 A2972 RMK A01 T02350198  RH  080%=      5-min Rain = 0
KAI1 280252Z 16017KT 24/20 A2972 RMK A01 T02350198  RH  080%=      5-min Rain = 0
KAI1 280253Z 16017KT 23/20 A2972 RMK A01 T02340198  RH  080%=      5-min Rain = 0
KAI1 280254Z 16017KT 23/20 A2972 RMK A01 T02340198  RH  080%=      5-min Rain = 0
KAI1 280255Z 16017KT 23/20 A2972 RMK A01 T02340198  RH  080%=      5-min Rain = 0
KAI1 280256Z 15017KT 23/20 A2972 RMK A01 T02340198  RH  080%=      5-min Rain = 0
KAI1 280257Z 16017KT 23/20 A2972 RMK A01 T02340198  RH  080%=      5-min Rain = 0
KAI1 280258Z 16017KT 23/20 A2972 RMK A01 T02340198  RH  080%=      5-min Rain = 0
KAI1 280259Z 16016KT 23/20 A2972 RMK A01 T02340198  RH  080%=      5-min Rain = 0
KAI1 280300Z 16017KT 23/20 A2972 RMK A01 T02340198  RH  080%=      5-min Rain = 0
KAI1 280301Z 16018KT 23/20 A2972 RMK A01 T02330198  RH  080%=      5-min Rain = 0
KAI1 280302Z 16017KT 23/20 A2972 RMK A01 T02330198  RH  080%=      5-min Rain = 0
KAI1 280303Z 16017KT 23/20 A2972 RMK A01 T02330197  RH  080%=      5-min Rain = 0
KAI1 280304Z 16018KT 23/20 A2972 RMK A01 T02330197  RH  080%=      5-min Rain = 0
KAI1 280305Z 16018KT 23/20 A2972 RMK A01 T02330197  RH  080%=      5-min Rain = 0
KAI1 280306Z 16017KT 23/20 A2972 RMK A01 T02340197  RH  080%=      5-min Rain = 0
KAI1 280307Z 16017KT 23/20 A2972 RMK A01 T02330197  RH  080%=      5-min Rain = 0
KAI1 280308Z 16016KT 23/20 A2972 RMK A01 T02330197  RH  080%=      5-min Rain = 0
KAI1 280309Z 16016KT 23/20 A2972 RMK A01 T02330198  RH  080%=      5-min Rain = 0
KAI1 280310Z 16017KT 23/20 A2972 RMK A01 T02330197  RH  080%=      5-min Rain = 0
KAI1 280311Z 16018KT 23/20 A2972 RMK A01 T02320197  RH  081%=      5-min Rain = 0
KAI1 280312Z 16018KT 23/20 A2972 RMK A01 T02320197  RH  081%=      5-min Rain = 0
KAI1 280313Z 16018KT 23/20 A2972 RMK A01 T02320197  RH  080%=      5-min Rain = 0
KAI1 280314Z 16017KT 23/20 A2972 RMK A01 T02320196  RH  080%=      5-min Rain = 0
KAI1 280315Z 15018KT 23/20 A2972 RMK A01 T02320196  RH  080%=      5-min Rain = 0
KAI1 280316Z 15018KT 23/20 A2972 RMK A01 T02320197  RH  080%=      5-min Rain = 0
KAI1 280317Z 16019KT 23/20 A2972 RMK A01 T02320196  RH  080%=      5-min Rain = 0
KAI1 280318Z 16017KT 23/20 A2972 RMK A01 T02320196  RH  080%=      5-min Rain = 0
KAI1 280319Z 16018G23KT 23/20 A2972 RMK A01 T02320196  RH  080%=      5-min Rain = 0
KAI1 280320Z 16018KT 23/20 A2972 RMK A01 T02320196  RH  080%=      5-min Rain = 0
KAI1 280321Z 16018KT 23/20 A2972 RMK A01 T02320196  RH  081%=      5-min Rain = 0
KAI1 280322Z 16018KT 23/20 A2972 RMK A01 T02320196  RH  080%=      5-min Rain = 0
KAI1 280323Z 16018G23KT 23/20 A2972 RMK A01 T02310196  RH  080%=      5-min Rain = 0
KAI1 280324Z 16019KT 23/20 A2972 RMK A01 T02310195  RH  080%=      5-min Rain = 0
KAI1 280325Z 16017KT 23/20 A2972 RMK A01 T02310195  RH  080%=      5-min Rain = 0
KAI1 280326Z 16018KT 23/20 A2972 RMK A01 T02310195  RH  080%=      5-min Rain = 0
KAI1 280327Z 16017KT 23/20 A2972 RMK A01 T02310195  RH  080%=      5-min Rain = 0
KAI1 280328Z 16017KT 23/20 A2972 RMK A01 T02310195  RH  080%=      5-min Rain = 0
KAI1 280329Z 16018KT 23/20 A2972 RMK A01 T02310195  RH  080%=      5-min Rain = 0
KAI1 280330Z 16019KT 23/19 A2972 RMK A01 T02310194  RH  080%=      5-min Rain = 0
KAI1 280331Z 16019KT 23/19 A2972 RMK A01 T02310194  RH  080%=      5-min Rain = 0
KAI1 280332Z 16018KT 23/19 A2972 RMK A01 T02310194  RH  080%=      5-min Rain = 0
KAI1 280333Z 16018KT 23/19 A2972 RMK A01 T02310194  RH  080%=      5-min Rain = 0
KAI1 280334Z 16018KT 23/19 A2972 RMK A01 T02310194  RH  080%=      5-min Rain = 0
KAI1 280335Z 16018KT 23/19 A2972 RMK A01 T02310194  RH  080%=      5-min Rain = 0
KAI1 280336Z 16017KT 23/19 A2972 RMK A01 T02310194  RH  080%=      5-min Rain = 0
KAI1 280337Z 16018KT 23/19 A2973 RMK A01 T02300194  RH  080%=      5-min Rain = 0
KAI1 280338Z 16018KT 23/19 A2973 RMK A01 T02300194  RH  080%=      5-min Rain = 0
KAI1 280339Z 16016KT 23/19 A2973 RMK A01 T02300193  RH  080%=      5-min Rain = 0
KAI1 280340Z 16017KT 23/19 A2973 RMK A01 T02300193  RH  080%=      5-min Rain = 0
KAI1 280341Z 16016KT 23/19 A2973 RMK A01 T02300194  RH  080%=      5-min Rain = 0
KAI1 280342Z 16017KT 23/19 A2973 RMK A01 T02290194  RH  080%=      5-min Rain = 0
KAI1 280343Z 16016KT 23/19 A2973 RMK A01 T02280193  RH  080%=      5-min Rain = 0
KAI1 280344Z 16017KT 23/19 A2973 RMK A01 T02290193  RH  080%=      5-min Rain = 0
KAI1 280345Z 16018KT 23/19 A2973 RMK A01 T02280193  RH  080%=      5-min Rain = 0
KAI1 280346Z 16018KT 23/19 A2973 RMK A01 T02280192  RH  080%=      5-min Rain = 0
KAI1 280347Z 16016KT 23/19 A2973 RMK A01 T02280193  RH  080%=      5-min Rain = 0
KAI1 280348Z 16016KT 23/19 A2973 RMK A01 T02290193  RH  080%=      5-min Rain = 0
KAI1 280349Z 16017KT 23/19 A2973 RMK A01 T02280193  RH  080%=      5-min Rain = 0
KAI1 280350Z 16018KT 23/19 A2973 RMK A01 T02280193  RH  080%=      5-min Rain = 0
KAI1 280351Z 16016KT 23/19 A2973 RMK A01 T02280193  RH  080%=      5-min Rain = 0
KAI1 280352Z 16016KT 23/19 A2973 RMK A01 T02280193  RH  080%=      5-min Rain = 0
KAI1 280353Z 16016KT 23/19 A2973 RMK A01 T02270192  RH  081%=      5-min Rain = 0
KAI1 280354Z 16015KT 23/19 A2973 RMK A01 T02270192  RH  081%=      5-min Rain = 0
KAI1 280355Z 16016KT 23/19 A2973 RMK A01 T02270192  RH  081%=      5-min Rain = 0
KAI1 280356Z 16016KT 23/19 A2973 RMK A01 T02270192  RH  081%=      5-min Rain = 0
KAI1 280357Z 16016KT 23/19 A2973 RMK A01 T02260192  RH  081%=      5-min Rain = 0
KAI1 280358Z 16015KT 23/19 A2973 RMK A01 T02260192  RH  081%=      5-min Rain = 0
KAI1 280359Z 16017KT 23/19 A2973 RMK A01 T02270192  RH  081%=      5-min Rain = 0
KAI1 280400Z 16015KT 23/19 A2973 RMK A01 T02260192  RH  081%=      5-min Rain = 0
KAI1 280401Z 16015KT 23/19 A2973 RMK A01 T02260192  RH  081%=      5-min Rain = 0
KAI1 280402Z 16017KT 23/19 A2973 RMK A01 T02260192  RH  081%=      5-min Rain = 0
KAI1 280403Z 16015KT 23/19 A2973 RMK A01 T02260192  RH  081%=      5-min Rain = 0
KAI1 280404Z 16017KT 23/19 A2973 RMK A01 T02260191  RH  081%=      5-min Rain = 0
KAI1 280405Z 16017KT 23/19 A2973 RMK A01 T02260191  RH  081%=      5-min Rain = 0
KAI1 280406Z 16016KT 23/19 A2973 RMK A01 T02260191  RH  080%=      5-min Rain = 0
KAI1 280407Z 16018KT 23/19 A2973 RMK A01 T02270191  RH  080%=      5-min Rain = 0
KAI1 280408Z 16017KT 23/19 A2973 RMK A01 T02270191  RH  080%=      5-min Rain = 0
KAI1 280409Z 16016KT 23/19 A2973 RMK A01 T02260191  RH  080%=      5-min Rain = 0
KAI1 280410Z 16017KT 23/19 A2973 RMK A01 T02270191  RH  080%=      5-min Rain = 0
KAI1 280411Z 16016KT 23/19 A2973 RMK A01 T02270191  RH  080%=      5-min Rain = 0
KAI1 280412Z 16016KT 23/19 A2973 RMK A01 T02270191  RH  080%=      5-min Rain = 0
KAI1 280413Z 16018KT 23/19 A2973 RMK A01 T02260191  RH  080%=      5-min Rain = 0
KAI1 280414Z 16018KT 23/19 A2973 RMK A01 T02260191  RH  080%=      5-min Rain = 0
KAI1 280415Z 16017KT 23/19 A2973 RMK A01 T02260191  RH  080%=      5-min Rain = 0
KAI1 280416Z 16018KT 23/19 A2973 RMK A01 T02260191  RH  081%=      5-min Rain = 0
KAI1 280417Z 16018KT 23/19 A2973 RMK A01 T02260191  RH  081%=      5-min Rain = 0
KAI1 280418Z 16018KT 23/19 A2973 RMK A01 T02260191  RH  081%=      5-min Rain = 0
KAI1 280419Z 16017KT 23/19 A2973 RMK A01 T02260191  RH  080%=      5-min Rain = 0
KAI1 280420Z 16017KT 23/19 A2973 RMK A01 T02260191  RH  080%=      5-min Rain = 0
KAI1 280421Z 16017KT 23/19 A2973 RMK A01 T02260191  RH  081%=      5-min Rain = 0
KAI1 280422Z 16017KT 23/19 A2973 RMK A01 T02260191  RH  081%=      5-min Rain = 0
KAI1 280423Z 16017KT 23/19 A2973 RMK A01 T02260191  RH  081%=      5-min Rain = 0
KAI1 280424Z 16016KT 23/19 A2973 RMK A01 T02260191  RH  081%=      5-min Rain = 0
KAI1 280425Z 16016KT 23/19 A2973 RMK A01 T02260191  RH  081%=      5-min Rain = 0
KAI1 280426Z 16016KT 23/19 A2973 RMK A01 T02260191  RH  081%=      5-min Rain = 0
KAI1 280427Z 16016KT 23/19 A2973 RMK A01 T02250191  RH  081%=      5-min Rain = 0
KAI1 280428Z 16016KT 23/19 A2973 RMK A01 T02250190  RH  081%=      5-min Rain = 0
KAI1 280429Z 16015KT 23/19 A2973 RMK A01 T02250190  RH  081%=      5-min Rain = 0
KAI1 280430Z 16015KT 23/19 A2973 RMK A01 T02250191  RH  081%=      5-min Rain = 0
KAI1 280431Z 16017KT 22/19 A2973 RMK A01 T02240190  RH  081%=      5-min Rain = 0
KAI1 280432Z 16016KT 22/19 A2973 RMK A01 T02240190  RH  081%=      5-min Rain = 0
KAI1 280433Z 16015KT 22/19 A2973 RMK A01 T02240190  RH  081%=      5-min Rain = 0
KAI1 280434Z 16015KT 22/19 A2973 RMK A01 T02240190  RH  081%=      5-min Rain = 0
KAI1 280435Z 16015KT 22/19 A2973 RMK A01 T02240190  RH  081%=      5-min Rain = 0
KAI1 280436Z 16016KT 22/19 A2973 RMK A01 T02240190  RH  081%=      5-min Rain = 0
KAI1 280437Z 16016KT 22/19 A2973 RMK A01 T02240190  RH  081%=      5-min Rain = 0
KAI1 280438Z 17017KT 22/19 A2973 RMK A01 T02230190  RH  081%=      5-min Rain = 0
KAI1 280439Z 16016KT 22/19 A2973 RMK A01 T02230190  RH  081%=      5-min Rain = 0
KAI1 280440Z 16015KT 22/19 A2973 RMK A01 T02230190  RH  081%=      5-min Rain = 0
KAI1 280441Z 16016KT 22/19 A2973 RMK A01 T02230190  RH  082%=      5-min Rain = 0
KAI1 280442Z 16016KT 22/19 A2973 RMK A01 T02230190  RH  082%=      5-min Rain = 0
KAI1 280443Z 16015KT 22/19 A2973 RMK A01 T02220190  RH  082%=      5-min Rain = 0
KAI1 280444Z 17015KT 22/19 A2973 RMK A01 T02220190  RH  082%=      5-min Rain = 0
KAI1 280445Z 17016KT 22/19 A2973 RMK A01 T02220190  RH  082%=      5-min Rain = 0
KAI1 280446Z 17015KT 22/19 A2973 RMK A01 T02220190  RH  082%=      5-min Rain = 0
KAI1 280447Z 17015KT 22/19 A2973 RMK A01 T02220190  RH  082%=      5-min Rain = 0
KAI1 280448Z 17018KT 22/19 A2973 RMK A01 T02220190  RH  082%=      5-min Rain = 0
KAI1 280449Z 17016KT 22/19 A2973 RMK A01 T02210190  RH  082%=      5-min Rain = 0
KAI1 280450Z 17016G21KT 22/19 A2973 RMK A01 T02220190  RH  082%=      5-min Rain = 0
KAI1 280451Z 17016KT 22/19 A2973 RMK A01 T02210190  RH  083%=      5-min Rain = 0
KAI1 280452Z 17017KT 22/19 A2973 RMK A01 T02210190  RH  082%=      5-min Rain = 0
KAI1 280453Z 17016KT 22/19 A2973 RMK A01 T02210190  RH  082%=      5-min Rain = 0
KAI1 280454Z 17017KT 22/19 A2973 RMK A01 T02220190  RH  082%=      5-min Rain = 0
KAI1 280455Z 17017KT 22/19 A2973 RMK A01 T02220190  RH  082%=      5-min Rain = 0
KAI1 280456Z 17016KT 22/19 A2973 RMK A01 T02220190  RH  082%=      5-min Rain = 0
KAI1 280457Z 17016KT 22/19 A2973 RMK A01 T02210190  RH  082%=      5-min Rain = 0
KAI1 280458Z 17017KT 22/19 A2973 RMK A01 T02210190  RH  083%=      5-min Rain = 0
KAI1 280459Z 17016KT 22/19 A2974 RMK A01 T02210190  RH  083%=      5-min Rain = 0

Page generated in 0.142 seconds.